Time,TemperatureF,DewpointF,PressureIn,WindDirection,WindDirectionDegrees,WindSpeedMPH,WindSpeedGustMPH,Humidity,HourlyPrecipIn,Conditions,Clouds,dailyrainin,SoftwareType,DateUTC
2013-02-26 00:00:00,75.1,72.6,29.82,SSE,152,0.0,0.0,92,0.00,,,0.00,Wunderground v.1.15,2013-02-26 05:00:00,
2013-02-26 00:04:00,75.2,72.4,29.83,SSE,154,0.0,0.0,91,0.00,,,0.00,Wunderground v.1.15,2013-02-26 05:04:00,
2013-02-26 00:06:00,75.2,72.4,29.83,SSE,156,0.0,0.0,91,0.00,,,0.00,Wunderground v.1.15,2013-02-26 05:06:00,
2013-02-26 00:07:00,75.1,72.3,29.83,SSE,156,0.0,0.0,91,0.00,,,0.00,Wunderground v.1.15,2013-02-26 05:07:00,
2013-02-26 00:10:00,75.2,72.4,29.83,SSE,157,0.0,0.0,91,0.00,,,0.00,Wunderground v.1.15,2013-02-26 05:10:00,
2013-02-26 00:11:00,75.2,72.4,29.83,SSE,157,0.0,0.0,91,0.00,,,0.00,Wunderground v.1.15,2013-02-26 05:11:00,
2013-02-26 00:14:00,75.2,72.4,29.82,SSE,155,2.0,2.0,91,0.00,,,0.00,Wunderground v.1.15,2013-02-26 05:14:00,
2013-02-26 00:18:00,75.3,72.5,29.82,SSE,156,0.0,2.0,91,0.00,,,0.00,Wunderground v.1.15,2013-02-26 05:18:00,
2013-02-26 00:19:00,75.3,72.5,29.82,SSE,153,2.0,2.0,91,0.00,,,0.00,Wunderground v.1.15,2013-02-26 05:19:00,
2013-02-26 00:23:00,75.3,72.5,29.82,SE,146,0.0,2.0,91,0.00,,,0.00,Wunderground v.1.15,2013-02-26 05:23:00,
2013-02-26 00:24:00,75.4,72.6,29.82,SE,145,3.0,3.0,91,0.00,,,0.00,Wunderground v.1.15,2013-02-26 05:24:00,
2013-02-26 00:25:00,75.4,72.6,29.82,SE,136,6.0,6.0,91,0.00,,,0.00,Wunderground v.1.15,2013-02-26 05:25:00,
2013-02-26 00:28:00,75.3,72.5,29.82,SE,143,2.0,6.0,91,0.00,,,0.00,Wunderground v.1.15,2013-02-26 05:28:00,
2013-02-26 00:31:00,75.4,72.6,29.82,SE,146,4.0,4.0,91,0.00,,,0.00,Wunderground v.1.15,2013-02-26 05:31:00,
2013-02-26 00:32:00,75.4,72.6,29.82,SE,143,0.0,4.0,91,0.00,,,0.00,Wunderground v.1.15,2013-02-26 05:32:00,
2013-02-26 00:34:00,75.4,72.6,29.82,SE,140,0.0,4.0,91,0.00,,,0.00,Wunderground v.1.15,2013-02-26 05:34:00,
2013-02-26 00:35:00,75.3,72.5,29.82,SE,143,0.0,4.0,91,0.00,,,0.00,Wunderground v.1.15,2013-02-26 05:35:00,
2013-02-26 00:38:00,75.3,72.5,29.82,SE,146,2.0,6.0,91,0.00,,,0.00,Wunderground v.1.15,2013-02-26 05:38:00,
2013-02-26 00:40:00,75.4,72.6,29.82,SE,136,0.0,1.0,91,0.00,,,0.00,Wunderground v.1.15,2013-02-26 05:40:00,
2013-02-26 00:43:00,75.4,72.6,29.81,SE,132,0.0,1.0,91,0.00,,,0.00,Wunderground v.1.15,2013-02-26 05:43:00,
2013-02-26 00:44:00,75.4,72.6,29.81,SE,144,0.0,1.0,91,0.00,,,0.00,Wunderground v.1.15,2013-02-26 05:44:00,
2013-02-26 00:46:00,75.4,72.6,29.81,SE,139,0.0,1.0,91,0.00,,,0.00,Wunderground v.1.15,2013-02-26 05:46:00,
2013-02-26 00:48:00,75.4,72.6,29.81,SE,142,0.0,1.0,91,0.00,,,0.00,Wunderground v.1.15,2013-02-26 05:48:00,
2013-02-26 00:49:00,75.4,72.6,29.81,South,173,6.0,6.0,91,0.00,,,0.00,Wunderground v.1.15,2013-02-26 05:49:00,
2013-02-26 00:53:00,75.4,72.6,29.82,SE,142,0.0,6.0,91,0.00,,,0.00,Wunderground v.1.15,2013-02-26 05:53:00,
2013-02-26 00:54:00,75.4,72.6,29.81,SE,136,0.0,6.0,91,0.00,,,0.00,Wunderground v.1.15,2013-02-26 05:54:00,
2013-02-26 00:55:00,75.4,72.6,29.81,South,169,0.0,6.0,91,0.00,,,0.00,Wunderground v.1.15,2013-02-26 05:55:00,
2013-02-26 00:58:00,75.4,72.6,29.81,SSE,164,6.0,6.0,91,0.00,,,0.00,Wunderground v.1.15,2013-02-26 05:58:00,
2013-02-26 01:00:00,75.4,72.6,29.81,SE,138,0.0,5.0,91,0.00,,,0.00,Wunderground v.1.15,2013-02-26 06:00:00,
2013-02-26 01:05:00,75.4,72.3,29.81,SSE,166,1.0,7.0,90,0.00,,,0.00,Wunderground v.1.15,2013-02-26 06:05:00,
2013-02-26 01:06:00,75.4,72.3,29.81,South,176,5.0,7.0,90,0.00,,,0.00,Wunderground v.1.15,2013-02-26 06:06:00,
2013-02-26 01:10:00,75.4,72.3,29.81,South,178,2.0,4.0,90,0.00,,,0.00,Wunderground v.1.15,2013-02-26 06:10:00,
2013-02-26 01:11:00,75.4,72.3,29.81,SSW,192,0.0,4.0,90,0.00,,,0.00,Wunderground v.1.15,2013-02-26 06:11:00,
2013-02-26 01:14:00,75.4,72.3,29.80,South,172,4.0,6.0,90,0.00,,,0.00,Wunderground v.1.15,2013-02-26 06:14:00,
2013-02-26 01:15:00,75.4,72.3,29.81,SSE,168,5.0,6.0,90,0.00,,,0.00,Wunderground v.1.15,2013-02-26 06:15:00,
2013-02-26 01:16:00,75.4,72.3,29.80,South,187,1.0,6.0,90,0.00,,,0.00,Wunderground v.1.15,2013-02-26 06:16:00,
2013-02-26 01:19:00,75.4,71.9,29.80,SSE,157,5.0,5.0,89,0.00,,,0.00,Wunderground v.1.15,2013-02-26 06:19:00,
2013-02-26 01:20:00,75.4,71.9,29.80,SE,146,7.0,7.0,89,0.00,,,0.00,Wunderground v.1.15,2013-02-26 06:20:00,
2013-02-26 01:22:00,75.4,71.9,29.80,SSE,160,3.0,7.0,89,0.00,,,0.00,Wunderground v.1.15,2013-02-26 06:22:00,
2013-02-26 01:24:00,75.3,71.8,29.80,SSE,155,4.0,7.0,89,0.00,,,0.00,Wunderground v.1.15,2013-02-26 06:24:00,
2013-02-26 01:25:00,75.4,71.9,29.80,South,184,1.0,7.0,89,0.00,,,0.00,Wunderground v.1.15,2013-02-26 06:25:00,
2013-02-26 01:28:00,75.3,71.8,29.80,SSE,152,1.0,7.0,89,0.00,,,0.00,Wunderground v.1.15,2013-02-26 06:28:00,
2013-02-26 01:30:00,75.3,71.8,29.80,South,173,0.0,3.0,89,0.00,,,0.00,Wunderground v.1.15,2013-02-26 06:30:00,
2013-02-26 01:31:00,75.3,71.8,29.80,South,173,4.0,4.0,89,0.00,,,0.00,Wunderground v.1.15,2013-02-26 06:31:00,
2013-02-26 01:34:00,75.3,71.8,29.80,South,173,4.0,4.0,89,0.00,,,0.00,Wunderground v.1.15,2013-02-26 06:34:00,
2013-02-26 01:36:00,75.3,71.8,29.80,South,183,0.0,5.0,89,0.00,,,0.00,Wunderground v.1.15,2013-02-26 06:36:00,
2013-02-26 01:39:00,75.2,71.4,29.79,South,176,6.0,6.0,88,0.00,,,0.00,Wunderground v.1.15,2013-02-26 06:39:00,
2013-02-26 01:43:00,75.2,71.7,29.80,SSE,167,3.0,6.0,89,0.00,,,0.00,Wunderground v.1.15,2013-02-26 06:43:00,
2013-02-26 01:44:00,75.2,71.4,29.80,SSW,198,13.0,13.0,88,0.00,,,0.00,Wunderground v.1.15,2013-02-26 06:44:00,
2013-02-26 01:45:00,75.2,71.4,29.80,SSE,153,5.0,13.0,88,0.00,,,0.00,Wunderground v.1.15,2013-02-26 06:45:00,
2013-02-26 01:49:00,75.3,71.5,29.79,South,173,5.0,5.0,88,0.00,,,0.00,Wunderground v.1.15,2013-02-26 06:49:00,
2013-02-26 01:50:00,75.3,71.5,29.79,SSE,158,5.0,5.0,88,0.00,,,0.00,Wunderground v.1.15,2013-02-26 06:50:00,
2013-02-26 01:53:00,75.3,71.5,29.79,SSE,156,1.0,6.0,88,0.00,,,0.00,Wunderground v.1.15,2013-02-26 06:53:00,
2013-02-26 01:54:00,75.3,71.5,29.79,South,174,5.0,6.0,88,0.00,,,0.00,Wunderground v.1.15,2013-02-26 06:54:00,
2013-02-26 02:00:00,75.3,71.5,29.79,South,169,7.0,7.0,88,0.00,,,0.00,Wunderground v.1.15,2013-02-26 07:00:00,
2013-02-26 02:05:00,75.3,71.5,29.79,SSE,164,5.0,11.0,88,0.00,,,0.00,Wunderground v.1.15,2013-02-26 07:05:00,
2013-02-26 02:06:00,75.3,71.5,29.79,SSE,165,0.0,11.0,88,0.00,,,0.00,Wunderground v.1.15,2013-02-26 07:06:00,
2013-02-26 02:10:00,75.4,71.6,29.79,SSE,161,5.0,5.0,88,0.00,,,0.00,Wunderground v.1.15,2013-02-26 07:10:00,
2013-02-26 02:11:00,75.4,71.6,29.79,SSE,168,7.0,7.0,88,0.00,,,0.00,Wunderground v.1.15,2013-02-26 07:11:00,
2013-02-26 02:15:00,75.4,71.6,29.78,SSE,162,5.0,7.0,88,0.00,,,0.00,Wunderground v.1.15,2013-02-26 07:15:00,
2013-02-26 02:16:00,75.4,71.6,29.78,South,169,2.0,7.0,88,0.00,,,0.00,Wunderground v.1.15,2013-02-26 07:16:00,
2013-02-26 02:17:00,75.4,71.6,29.78,SE,141,0.0,7.0,88,0.00,,,0.00,Wunderground v.1.15,2013-02-26 07:17:00,
2013-02-26 02:20:00,75.4,71.6,29.78,South,173,3.0,8.0,88,0.00,,,0.00,Wunderground v.1.15,2013-02-26 07:20:00,
2013-02-26 02:22:00,75.4,71.6,29.78,South,177,0.0,8.0,88,0.00,,,0.00,Wunderground v.1.15,2013-02-26 07:22:00,
2013-02-26 02:23:00,75.4,71.6,29.79,South,177,8.0,8.0,88,0.00,,,0.00,Wunderground v.1.15,2013-02-26 07:23:00,
2013-02-26 02:26:00,75.4,71.3,29.78,South,173,2.0,11.0,87,0.00,,,0.00,Wunderground v.1.15,2013-02-26 07:26:00,
2013-02-26 02:27:00,75.4,71.3,29.78,South,173,6.0,11.0,87,0.00,,,0.00,Wunderground v.1.15,2013-02-26 07:27:00,
2013-02-26 02:28:00,75.4,71.3,29.78,South,183,11.0,11.0,87,0.00,,,0.00,Wunderground v.1.15,2013-02-26 07:28:00,
2013-02-26 02:31:00,75.4,71.3,29.78,SSE,159,5.0,9.0,87,0.00,,,0.00,Wunderground v.1.15,2013-02-26 07:31:00,
2013-02-26 02:33:00,75.4,71.3,29.78,SSE,163,5.0,9.0,87,0.00,,,0.00,Wunderground v.1.15,2013-02-26 07:33:00,
2013-02-26 02:36:00,75.4,71.3,29.78,SE,136,3.0,9.0,87,0.00,,,0.00,Wunderground v.1.15,2013-02-26 07:36:00,
2013-02-26 02:38:00,75.4,71.3,29.78,SE,145,6.0,9.0,87,0.00,,,0.00,Wunderground v.1.15,2013-02-26 07:38:00,
2013-02-26 02:39:00,75.4,71.3,29.78,SE,144,0.0,9.0,87,0.00,,,0.00,Wunderground v.1.15,2013-02-26 07:39:00,
2013-02-26 02:42:00,75.4,71.3,29.78,South,186,6.0,11.0,87,0.00,,,0.00,Wunderground v.1.15,2013-02-26 07:42:00,
2013-02-26 02:43:00,75.4,71.3,29.78,South,172,4.0,11.0,87,0.00,,,0.00,Wunderground v.1.15,2013-02-26 07:43:00,
2013-02-26 02:44:00,75.4,71.3,29.78,SSE,157,2.0,11.0,87,0.00,,,0.00,Wunderground v.1.15,2013-02-26 07:44:00,
2013-02-26 02:47:00,75.4,71.3,29.78,SSE,164,4.0,11.0,87,0.00,,,0.00,Wunderground v.1.15,2013-02-26 07:47:00,
2013-02-26 02:49:00,75.5,71.4,29.78,SSE,148,0.0,11.0,87,0.00,,,0.00,Wunderground v.1.15,2013-02-26 07:49:00,
2013-02-26 02:53:00,75.5,71.4,29.77,SSE,161,2.0,9.0,87,0.00,,,0.00,Wunderground v.1.15,2013-02-26 07:53:00,
2013-02-26 02:54:00,75.5,71.4,29.77,South,179,6.0,12.0,87,0.00,,,0.00,Wunderground v.1.15,2013-02-26 07:54:00,
2013-02-26 02:58:00,75.5,71.7,29.77,South,180,6.0,12.0,88,0.00,,,0.00,Wunderground v.1.15,2013-02-26 07:58:00,
2013-02-26 02:59:00,75.5,71.7,29.77,SSE,165,11.0,12.0,88,0.00,,,0.00,Wunderground v.1.15,2013-02-26 07:59:00,
2013-02-26 03:00:00,75.5,71.7,29.77,SSW,202,9.0,10.0,88,0.00,,,0.00,Wunderground v.1.15,2013-02-26 08:00:00,
2013-02-26 03:04:00,75.5,71.7,29.77,SSE,161,2.0,10.0,88,0.00,,,0.00,Wunderground v.1.15,2013-02-26 08:04:00,
2013-02-26 03:05:00,75.5,71.7,29.77,SSE,163,9.0,10.0,88,0.00,,,0.00,Wunderground v.1.15,2013-02-26 08:05:00,
2013-02-26 03:07:00,75.6,71.8,29.77,SSE,167,5.0,11.0,88,0.00,,,0.00,Wunderground v.1.15,2013-02-26 08:07:00,
2013-02-26 03:09:00,75.6,71.8,29.77,SSE,162,6.0,11.0,88,0.00,,,0.00,Wunderground v.1.15,2013-02-26 08:09:00,
2013-02-26 03:11:00,75.6,71.8,29.77,SSE,164,0.0,9.0,88,0.00,,,0.00,Wunderground v.1.15,2013-02-26 08:11:00,
2013-02-26 03:12:00,75.6,71.8,29.77,SSE,155,5.0,9.0,88,0.00,,,0.00,Wunderground v.1.15,2013-02-26 08:12:00,
2013-02-26 03:14:00,75.6,71.8,29.77,SSE,159,0.0,9.0,88,0.00,,,0.00,Wunderground v.1.15,2013-02-26 08:14:00,
2013-02-26 03:15:00,75.7,71.9,29.77,SSE,157,7.0,9.0,88,0.00,,,0.00,Wunderground v.1.15,2013-02-26 08:15:00,
2013-02-26 03:16:00,75.6,71.8,29.77,SSE,152,4.0,9.0,88,0.00,,,0.00,Wunderground v.1.15,2013-02-26 08:16:00,
2013-02-26 03:17:00,75.7,71.9,29.77,SSE,150,0.0,9.0,88,0.00,,,0.00,Wunderground v.1.15,2013-02-26 08:17:00,
2013-02-26 03:20:00,75.6,72.1,29.77,SSE,161,5.0,12.0,89,0.00,,,0.00,Wunderground v.1.15,2013-02-26 08:20:00,
2013-02-26 03:21:00,75.6,72.1,29.77,SSE,153,6.0,12.0,89,0.00,,,0.00,Wunderground v.1.15,2013-02-26 08:21:00,
2013-02-26 03:23:00,75.7,72.2,29.77,South,184,6.0,14.0,89,0.00,,,0.00,Wunderground v.1.15,2013-02-26 08:23:00,
2013-02-26 03:26:00,75.6,72.1,29.77,SSE,154,5.0,14.0,89,0.00,,,0.00,Wunderground v.1.15,2013-02-26 08:26:00,
2013-02-26 03:27:00,75.7,72.2,29.77,South,169,5.0,14.0,89,0.00,,,0.00,Wunderground v.1.15,2013-02-26 08:27:00,
2013-02-26 03:29:00,75.6,72.1,29.77,SSE,149,0.0,14.0,89,0.00,,,0.00,Wunderground v.1.15,2013-02-26 08:29:00,
2013-02-26 03:31:00,75.6,72.1,29.77,SSE,151,4.0,10.0,89,0.00,,,0.00,Wunderground v.1.15,2013-02-26 08:31:00,
2013-02-26 03:33:00,75.6,72.1,29.77,SSE,163,5.0,10.0,89,0.00,,,0.00,Wunderground v.1.15,2013-02-26 08:33:00,
2013-02-26 03:34:00,75.6,72.1,29.77,SSE,167,5.0,10.0,89,0.00,,,0.00,Wunderground v.1.15,2013-02-26 08:34:00,
2013-02-26 03:36:00,75.6,72.1,29.77,South,173,1.0,10.0,89,0.00,,,0.00,Wunderground v.1.15,2013-02-26 08:36:00,
2013-02-26 03:37:00,75.6,72.1,29.77,South,170,0.0,10.0,89,0.00,,,0.00,Wunderground v.1.15,2013-02-26 08:37:00,
2013-02-26 03:39:00,75.6,72.1,29.77,SSE,154,6.0,10.0,89,0.00,,,0.00,Wunderground v.1.15,2013-02-26 08:39:00,
2013-02-26 03:42:00,75.6,72.1,29.77,South,171,6.0,8.0,89,0.00,,,0.00,Wunderground v.1.15,2013-02-26 08:42:00,
2013-02-26 03:44:00,75.6,72.1,29.77,SSE,167,1.0,8.0,89,0.00,,,0.00,Wunderground v.1.15,2013-02-26 08:44:00,
2013-02-26 03:47:00,75.6,72.1,29.77,South,178,5.0,8.0,89,0.00,,,0.00,Wunderground v.1.15,2013-02-26 08:47:00,
2013-02-26 03:49:00,75.6,72.1,29.77,South,183,8.0,8.0,89,0.00,,,0.00,Wunderground v.1.15,2013-02-26 08:49:00,
2013-02-26 03:50:00,75.6,72.1,29.77,SSE,163,3.0,7.0,89,0.00,,,0.00,Wunderground v.1.15,2013-02-26 08:50:00,
2013-02-26 03:53:00,75.5,72.0,29.77,South,171,5.0,8.0,89,0.00,,,0.00,Wunderground v.1.15,2013-02-26 08:53:00,
2013-02-26 03:54:00,75.6,72.1,29.77,SSE,157,4.0,8.0,89,0.00,,,0.00,Wunderground v.1.15,2013-02-26 08:54:00,
2013-02-26 03:55:00,75.6,72.1,29.77,SSE,159,2.0,8.0,89,0.00,,,0.00,Wunderground v.1.15,2013-02-26 08:55:00,
2013-02-26 03:58:00,75.6,72.1,29.77,South,169,6.0,8.0,89,0.00,,,0.00,Wunderground v.1.15,2013-02-26 08:58:00,
2013-02-26 03:59:00,75.6,72.1,29.77,SSE,163,0.0,4.0,89,0.00,,,0.00,Wunderground v.1.15,2013-02-26 08:59:00,
2013-02-26 04:00:00,75.6,72.1,29.77,SSE,167,0.0,4.0,89,0.00,,,0.00,Wunderground v.1.15,2013-02-26 09:00:00,
2013-02-26 04:02:00,75.7,72.2,29.77,SSE,153,4.0,4.0,89,0.00,,,0.00,Wunderground v.1.15,2013-02-26 09:02:00,
2013-02-26 04:04:00,75.7,72.2,29.77,SSE,163,1.0,9.0,89,0.00,,,0.00,Wunderground v.1.15,2013-02-26 09:04:00,
2013-02-26 04:05:00,75.7,72.2,29.77,SSE,164,2.0,9.0,89,0.00,,,0.00,Wunderground v.1.15,2013-02-26 09:05:00,
2013-02-26 04:07:00,75.7,72.2,29.78,SSE,165,0.0,9.0,89,0.00,,,0.00,Wunderground v.1.15,2013-02-26 09:07:00,
2013-02-26 04:10:00,75.7,72.2,29.78,SSE,165,0.0,2.0,89,0.00,,,0.00,Wunderground v.1.15,2013-02-26 09:10:00,
2013-02-26 04:11:00,75.7,72.2,29.78,SSE,163,0.0,4.0,89,0.00,,,0.00,Wunderground v.1.15,2013-02-26 09:11:00,
2013-02-26 04:12:00,75.7,72.2,29.78,SSE,163,0.0,4.0,89,0.00,,,0.00,Wunderground v.1.15,2013-02-26 09:12:00,
2013-02-26 04:15:00,75.7,72.2,29.78,SSE,161,0.0,6.0,89,0.00,,,0.00,Wunderground v.1.15,2013-02-26 09:15:00,
2013-02-26 04:16:00,75.7,72.2,29.78,South,187,0.0,6.0,89,0.00,,,0.00,Wunderground v.1.15,2013-02-26 09:16:00,
2013-02-26 04:19:00,75.7,72.2,29.78,South,182,5.0,6.0,89,0.00,,,0.00,Wunderground v.1.15,2013-02-26 09:19:00,
2013-02-26 04:20:00,75.7,72.6,29.78,SSE,165,0.0,5.0,90,0.00,,,0.00,Wunderground v.1.15,2013-02-26 09:20:00,
2013-02-26 04:22:00,75.6,72.5,29.78,South,173,0.0,6.0,90,0.00,,,0.00,Wunderground v.1.15,2013-02-26 09:22:00,
2013-02-26 04:24:00,75.6,72.1,29.78,SSE,150,0.0,6.0,89,0.00,,,0.00,Wunderground v.1.15,2013-02-26 09:24:00,
2013-02-26 04:26:00,75.6,72.5,29.78,SSE,150,0.0,6.0,90,0.00,,,0.00,Wunderground v.1.15,2013-02-26 09:26:00,
2013-02-26 04:27:00,75.6,72.5,29.77,SSE,150,0.0,6.0,90,0.00,,,0.00,Wunderground v.1.15,2013-02-26 09:27:00,
2013-02-26 04:28:00,75.6,72.5,29.77,SSE,165,0.0,6.0,90,0.00,,,0.00,Wunderground v.1.15,2013-02-26 09:28:00,
2013-02-26 04:30:00,75.6,72.5,29.77,SSE,167,2.0,2.0,90,0.00,,,0.00,Wunderground v.1.15,2013-02-26 09:30:00,
2013-02-26 04:31:00,75.6,72.5,29.78,SE,134,5.0,5.0,90,0.00,,,0.00,Wunderground v.1.15,2013-02-26 09:31:00,
2013-02-26 04:33:00,75.5,72.0,29.78,South,184,1.0,6.0,89,0.00,,,0.00,Wunderground v.1.15,2013-02-26 09:33:00,
2013-02-26 04:35:00,75.4,71.9,29.78,South,184,1.0,6.0,89,0.00,,,0.00,Wunderground v.1.15,2013-02-26 09:35:00,
2013-02-26 04:36:00,75.5,72.0,29.77,South,188,4.0,8.0,89,0.00,,,0.00,Wunderground v.1.15,2013-02-26 09:36:00,
2013-02-26 04:38:00,75.5,72.0,29.78,SSE,159,7.0,10.0,89,0.00,,,0.00,Wunderground v.1.15,2013-02-26 09:38:00,
2013-02-26 04:40:00,75.5,72.0,29.78,South,181,5.0,5.0,89,0.00,,,0.00,Wunderground v.1.15,2013-02-26 09:40:00,
2013-02-26 04:41:00,75.5,72.0,29.78,South,180,3.0,5.0,89,0.00,,,0.00,Wunderground v.1.15,2013-02-26 09:41:00,
2013-02-26 04:44:00,75.5,72.0,29.78,South,173,3.0,8.0,89,0.00,,,0.00,Wunderground v.1.15,2013-02-26 09:44:00,
2013-02-26 04:45:00,75.5,72.0,29.78,South,175,1.0,8.0,89,0.00,,,0.00,Wunderground v.1.15,2013-02-26 09:45:00,
2013-02-26 04:46:00,75.5,72.0,29.78,SSE,150,5.0,8.0,89,0.00,,,0.00,Wunderground v.1.15,2013-02-26 09:46:00,
2013-02-26 04:50:00,75.5,72.0,29.78,SSE,162,4.0,7.0,89,0.00,,,0.00,Wunderground v.1.15,2013-02-26 09:50:00,
2013-02-26 04:51:00,75.5,72.0,29.78,SSE,168,7.0,8.0,89,0.00,,,0.00,Wunderground v.1.15,2013-02-26 09:51:00,
2013-02-26 04:52:00,75.5,72.0,29.78,South,185,5.0,8.0,89,0.00,,,0.00,Wunderground v.1.15,2013-02-26 09:52:00,
2013-02-26 04:55:00,75.5,72.0,29.78,South,178,0.0,9.0,89,0.00,,,0.00,Wunderground v.1.15,2013-02-26 09:55:00,
2013-02-26 04:57:00,75.5,72.0,29.78,South,171,2.0,9.0,89,0.00,,,0.00,Wunderground v.1.15,2013-02-26 09:57:00,
2013-02-26 05:01:00,75.5,71.7,29.78,South,172,1.0,4.0,88,0.00,,,0.00,Wunderground v.1.15,2013-02-26 10:01:00,
2013-02-26 05:02:00,75.5,71.7,29.78,SSE,166,0.0,9.0,88,0.00,,,0.00,Wunderground v.1.15,2013-02-26 10:02:00,
2013-02-26 05:06:00,75.4,71.6,29.78,SSE,157,0.0,9.0,88,0.00,,,0.00,Wunderground v.1.15,2013-02-26 10:06:00,
2013-02-26 05:07:00,75.4,71.6,29.78,South,178,1.0,9.0,88,0.00,,,0.00,Wunderground v.1.15,2013-02-26 10:07:00,
2013-02-26 05:08:00,75.4,71.9,29.78,SE,137,0.0,9.0,89,0.00,,,0.00,Wunderground v.1.15,2013-02-26 10:08:00,
2013-02-26 05:09:00,75.4,71.9,29.78,SE,138,0.0,9.0,89,0.00,,,0.00,Wunderground v.1.15,2013-02-26 10:09:00,
2013-02-26 05:11:00,75.4,71.9,29.78,South,175,1.0,7.0,89,0.00,,,0.00,Wunderground v.1.15,2013-02-26 10:11:00,
2013-02-26 05:12:00,75.4,71.9,29.78,South,184,4.0,8.0,89,0.00,,,0.00,Wunderground v.1.15,2013-02-26 10:12:00,
2013-02-26 05:13:00,75.3,71.8,29.78,SSE,164,5.0,8.0,89,0.00,,,0.00,Wunderground v.1.15,2013-02-26 10:13:00,
2013-02-26 05:15:00,75.4,71.9,29.78,SSE,155,4.0,8.0,89,0.00,,,0.00,Wunderground v.1.15,2013-02-26 10:15:00,
2013-02-26 05:16:00,75.4,71.9,29.78,South,176,0.0,8.0,89,0.00,,,0.00,Wunderground v.1.15,2013-02-26 10:16:00,
2013-02-26 05:19:00,75.3,71.8,29.78,SSE,153,4.0,8.0,89,0.00,,,0.00,Wunderground v.1.15,2013-02-26 10:19:00,
2013-02-26 05:20:00,75.3,71.8,29.78,SSE,152,5.0,5.0,89,0.00,,,0.00,Wunderground v.1.15,2013-02-26 10:20:00,
2013-02-26 05:22:00,75.3,71.8,29.78,SSE,158,0.0,8.0,89,0.00,,,0.00,Wunderground v.1.15,2013-02-26 10:22:00,
2013-02-26 05:24:00,75.4,71.9,29.78,SSE,149,0.0,8.0,89,0.00,,,0.00,Wunderground v.1.15,2013-02-26 10:24:00,
2013-02-26 05:25:00,75.3,71.8,29.78,SSE,149,0.0,8.0,89,0.00,,,0.00,Wunderground v.1.15,2013-02-26 10:25:00,
2013-02-26 05:26:00,75.3,71.8,29.78,SSW,192,3.0,9.0,89,0.00,,,0.00,Wunderground v.1.15,2013-02-26 10:26:00,
2013-02-26 05:28:00,75.3,71.8,29.78,SSE,157,7.0,9.0,89,0.00,,,0.00,Wunderground v.1.15,2013-02-26 10:28:00,
2013-02-26 05:29:00,75.3,71.8,29.78,South,179,9.0,9.0,89,0.00,,,0.00,Wunderground v.1.15,2013-02-26 10:29:00,
2013-02-26 05:30:00,75.3,71.8,29.78,SSE,159,1.0,9.0,89,0.00,,,0.00,Wunderground v.1.15,2013-02-26 10:30:00,
2013-02-26 05:32:00,75.3,71.8,29.78,SSE,164,6.0,9.0,89,0.00,,,0.00,Wunderground v.1.15,2013-02-26 10:32:00,
2013-02-26 05:34:00,75.3,71.8,29.78,South,171,4.0,9.0,89,0.00,,,0.00,Wunderground v.1.15,2013-02-26 10:34:00,
2013-02-26 05:36:00,75.3,71.8,29.78,SSE,167,0.0,9.0,89,0.00,,,0.00,Wunderground v.1.15,2013-02-26 10:36:00,
2013-02-26 05:37:00,75.3,71.8,29.78,SSE,168,4.0,9.0,89,0.00,,,0.00,Wunderground v.1.15,2013-02-26 10:37:00,
2013-02-26 05:39:00,75.3,71.8,29.78,South,171,5.0,9.0,89,0.00,,,0.00,Wunderground v.1.15,2013-02-26 10:39:00,
2013-02-26 05:40:00,75.3,71.8,29.78,South,171,0.0,4.0,89,0.00,,,0.00,Wunderground v.1.15,2013-02-26 10:40:00,
2013-02-26 05:42:00,75.3,71.8,29.78,South,178,0.0,8.0,89,0.00,,,0.00,Wunderground v.1.15,2013-02-26 10:42:00,
2013-02-26 05:45:00,75.3,71.8,29.78,South,182,6.0,8.0,89,0.00,,,0.00,Wunderground v.1.15,2013-02-26 10:45:00,
2013-02-26 05:47:00,75.3,71.8,29.78,South,173,4.0,8.0,89,0.00,,,0.00,Wunderground v.1.15,2013-02-26 10:47:00,
2013-02-26 05:48:00,75.3,71.8,29.78,South,178,0.0,8.0,89,0.00,,,0.00,Wunderground v.1.15,2013-02-26 10:48:00,
2013-02-26 05:50:00,75.2,71.7,29.78,SSE,167,1.0,5.0,89,0.00,,,0.00,Wunderground v.1.15,2013-02-26 10:50:00,
2013-02-26 05:51:00,75.3,71.8,29.78,South,191,1.0,5.0,89,0.00,,,0.00,Wunderground v.1.15,2013-02-26 10:51:00,
2013-02-26 05:53:00,75.2,71.7,29.78,South,173,6.0,6.0,89,0.00,,,0.00,Wunderground v.1.15,2013-02-26 10:53:00,
2013-02-26 05:55:00,75.2,71.7,29.78,South,183,7.0,7.0,89,0.00,,,0.00,Wunderground v.1.15,2013-02-26 10:55:00,
2013-02-26 05:56:00,75.2,71.7,29.78,South,191,4.0,7.0,89,0.00,,,0.00,Wunderground v.1.15,2013-02-26 10:56:00,
2013-02-26 05:58:00,75.2,71.7,29.78,South,178,0.0,7.0,89,0.00,,,0.00,Wunderground v.1.15,2013-02-26 10:58:00,
2013-02-26 05:59:00,75.2,71.7,29.78,South,178,0.0,7.0,89,0.00,,,0.00,Wunderground v.1.15,2013-02-26 10:59:00,
2013-02-26 06:01:00,75.1,71.6,29.78,South,176,0.0,4.0,89,0.00,,,0.00,Wunderground v.1.15,2013-02-26 11:01:00,
2013-02-26 06:02:00,75.2,71.7,29.78,South,176,1.0,4.0,89,0.00,,,0.00,Wunderground v.1.15,2013-02-26 11:02:00,
2013-02-26 06:03:00,75.2,71.7,29.78,South,176,0.0,4.0,89,0.00,,,0.00,Wunderground v.1.15,2013-02-26 11:03:00,
2013-02-26 06:04:00,75.2,71.7,29.78,South,176,0.0,4.0,89,0.00,,,0.00,Wunderground v.1.15,2013-02-26 11:04:00,
2013-02-26 06:06:00,75.1,71.6,29.78,SSE,157,0.0,4.0,89,0.00,,,0.00,Wunderground v.1.15,2013-02-26 11:06:00,
2013-02-26 06:07:00,75.1,71.6,29.78,SSE,167,5.0,5.0,89,0.00,,,0.00,Wunderground v.1.15,2013-02-26 11:07:00,
2013-02-26 06:08:00,75.1,71.6,29.78,South,170,0.0,6.0,89,0.00,,,0.00,Wunderground v.1.15,2013-02-26 11:08:00,
2013-02-26 06:09:00,75.1,71.6,29.78,South,170,0.0,6.0,89,0.00,,,0.00,Wunderground v.1.15,2013-02-26 11:09:00,
2013-02-26 06:11:00,75.1,71.6,29.78,SSE,158,4.0,7.0,89,0.00,,,0.00,Wunderground v.1.15,2013-02-26 11:11:00,
2013-02-26 06:13:00,75.1,71.6,29.78,SSE,167,0.0,7.0,89,0.00,,,0.00,Wunderground v.1.15,2013-02-26 11:13:00,
2013-02-26 06:14:00,75.1,71.6,29.78,SSE,167,0.0,7.0,89,0.00,,,0.00,Wunderground v.1.15,2013-02-26 11:14:00,
2013-02-26 06:16:00,75.1,72.0,29.78,SSE,163,5.0,7.0,90,0.00,,,0.00,Wunderground v.1.15,2013-02-26 11:16:00,
2013-02-26 06:18:00,75.1,71.6,29.79,South,173,0.0,7.0,89,0.00,,,0.00,Wunderground v.1.15,2013-02-26 11:18:00,
2013-02-26 06:19:00,75.1,71.6,29.79,South,173,0.0,7.0,89,0.00,,,0.00,Wunderground v.1.15,2013-02-26 11:19:00,
2013-02-26 06:22:00,75.1,71.6,29.78,South,180,4.0,7.0,89,0.00,,,0.00,Wunderground v.1.15,2013-02-26 11:22:00,
2013-02-26 06:24:00,75.0,71.5,29.78,South,176,0.0,7.0,89,0.00,,,0.00,Wunderground v.1.15,2013-02-26 11:24:00,
2013-02-26 06:25:00,75.0,71.5,29.79,South,169,4.0,7.0,89,0.00,,,0.00,Wunderground v.1.15,2013-02-26 11:25:00,
2013-02-26 06:27:00,75.0,71.5,29.79,South,169,0.0,7.0,89,0.00,,,0.00,Wunderground v.1.15,2013-02-26 11:27:00,
2013-02-26 06:29:00,75.0,71.5,29.79,SSE,164,1.0,7.0,89,0.00,,,0.00,Wunderground v.1.15,2013-02-26 11:29:00,
2013-02-26 06:30:00,75.0,71.5,29.79,SSE,164,0.0,2.0,89,0.00,,,0.00,Wunderground v.1.15,2013-02-26 11:30:00,
2013-02-26 06:33:00,75.0,71.5,29.79,SSE,162,2.0,4.0,89,0.00,,,0.00,Wunderground v.1.15,2013-02-26 11:33:00,
2013-02-26 06:34:00,75.0,71.5,29.79,SSE,162,3.0,4.0,89,0.00,,,0.00,Wunderground v.1.15,2013-02-26 11:34:00,
2013-02-26 06:36:00,75.0,71.5,29.80,SSE,164,6.0,6.0,89,0.00,,,0.00,Wunderground v.1.15,2013-02-26 11:36:00,
2013-02-26 06:39:00,75.0,71.9,29.80,SSE,164,0.0,6.0,90,0.00,,,0.00,Wunderground v.1.15,2013-02-26 11:39:00,
2013-02-26 06:41:00,75.0,71.9,29.79,SSE,164,0.0,1.0,90,0.00,,,0.00,Wunderground v.1.15,2013-02-26 11:41:00,
2013-02-26 06:44:00,75.0,71.9,29.79,SSE,164,0.0,1.0,90,0.00,,,0.00,Wunderground v.1.15,2013-02-26 11:44:00,
2013-02-26 06:45:00,75.0,71.9,29.79,SSE,164,0.0,6.0,90,0.00,,,0.00,Wunderground v.1.15,2013-02-26 11:45:00,
2013-02-26 06:46:00,75.0,71.9,29.79,SSE,164,0.0,6.0,90,0.00,,,0.00,Wunderground v.1.15,2013-02-26 11:46:00,
2013-02-26 06:49:00,75.0,71.9,29.79,SSE,165,0.0,6.0,90,0.00,,,0.00,Wunderground v.1.15,2013-02-26 11:49:00,
2013-02-26 06:50:00,75.0,71.9,29.80,SSE,165,0.0,1.0,90,0.00,,,0.00,Wunderground v.1.15,2013-02-26 11:50:00,
2013-02-26 06:51:00,75.0,71.9,29.80,SSE,165,0.0,1.0,90,0.00,,,0.00,Wunderground v.1.15,2013-02-26 11:51:00,
2013-02-26 06:54:00,75.0,71.9,29.80,SSE,163,0.0,4.0,90,0.00,,,0.00,Wunderground v.1.15,2013-02-26 11:54:00,
2013-02-26 06:55:00,75.0,71.9,29.80,SSE,163,0.0,4.0,90,0.00,,,0.00,Wunderground v.1.15,2013-02-26 11:55:00,
2013-02-26 06:56:00,75.0,71.9,29.79,SSE,163,0.0,4.0,90,0.00,,,0.00,Wunderground v.1.15,2013-02-26 11:56:00,
2013-02-26 07:00:00,74.9,71.8,29.80,SSE,163,1.0,1.0,90,0.00,,,0.00,Wunderground v.1.15,2013-02-26 12:00:00,
2013-02-26 07:01:00,74.9,71.8,29.80,SSE,163,0.0,1.0,90,0.00,,,0.00,Wunderground v.1.15,2013-02-26 12:01:00,
2013-02-26 07:05:00,74.9,71.8,29.80,SSE,165,0.0,5.0,90,0.00,,,0.00,Wunderground v.1.15,2013-02-26 12:05:00,
2013-02-26 07:06:00,74.9,71.8,29.80,SSE,165,0.0,5.0,90,0.00,,,0.00,Wunderground v.1.15,2013-02-26 12:06:00,
2013-02-26 07:08:00,74.8,71.7,29.80,SSE,165,0.0,5.0,90,0.00,,,0.00,Wunderground v.1.15,2013-02-26 12:08:00,
2013-02-26 07:10:00,74.8,71.7,29.81,SSE,165,0.0,1.0,90,0.00,,,0.00,Wunderground v.1.15,2013-02-26 12:10:00,
2013-02-26 07:11:00,74.8,71.7,29.81,SSE,165,0.0,1.0,90,0.00,,,0.00,Wunderground v.1.15,2013-02-26 12:11:00,
2013-02-26 07:12:00,74.9,71.8,29.81,SSE,165,0.0,1.0,90,0.00,,,0.00,Wunderground v.1.15,2013-02-26 12:12:00,
2013-02-26 07:13:00,74.9,71.8,29.81,SSE,165,0.0,1.0,90,0.00,,,0.00,Wunderground v.1.15,2013-02-26 12:13:00,
2013-02-26 07:16:00,74.8,71.7,29.81,SSE,165,0.0,4.0,90,0.00,,,0.00,Wunderground v.1.15,2013-02-26 12:16:00,
2013-02-26 07:17:00,74.9,71.8,29.81,SSE,165,0.0,4.0,90,0.00,,,0.00,Wunderground v.1.15,2013-02-26 12:17:00,
2013-02-26 07:18:00,74.9,72.1,29.81,SSE,165,0.0,4.0,91,0.00,,,0.00,Wunderground v.1.15,2013-02-26 12:18:00,
2013-02-26 07:21:00,74.9,72.1,29.81,SSE,165,0.0,1.0,91,0.00,,,0.00,Wunderground v.1.15,2013-02-26 12:21:00,
2013-02-26 07:23:00,74.9,72.1,29.81,SSE,165,0.0,5.0,91,0.00,,,0.00,Wunderground v.1.15,2013-02-26 12:23:00,
2013-02-26 07:28:00,75.2,72.1,29.81,SSE,163,0.0,5.0,90,0.00,,,0.00,Wunderground v.1.15,2013-02-26 12:28:00,
2013-02-26 07:30:00,75.3,72.2,29.81,SSE,164,0.0,0.0,90,0.00,,,0.00,Wunderground v.1.15,2013-02-26 12:30:00,
2013-02-26 07:33:00,75.4,72.3,29.82,SSE,164,0.0,1.0,90,0.00,,,0.00,Wunderground v.1.15,2013-02-26 12:33:00,
2013-02-26 07:34:00,75.5,72.4,29.82,SSE,164,0.0,1.0,90,0.00,,,0.00,Wunderground v.1.15,2013-02-26 12:34:00,
2013-02-26 07:36:00,75.6,72.5,29.82,SSE,164,0.0,1.0,90,0.00,,,0.00,Wunderground v.1.15,2013-02-26 12:36:00,
2013-02-26 07:39:00,75.8,72.7,29.82,SE,146,0.0,4.0,90,0.00,,,0.00,Wunderground v.1.15,2013-02-26 12:39:00,
2013-02-26 07:40:00,75.8,72.7,29.82,SSE,148,0.0,4.0,90,0.00,,,0.00,Wunderground v.1.15,2013-02-26 12:40:00,
2013-02-26 07:42:00,76.0,72.9,29.82,SW,226,1.0,4.0,90,0.00,,,0.00,Wunderground v.1.15,2013-02-26 12:42:00,
2013-02-26 07:45:00,76.1,72.6,29.82,SSW,198,8.0,8.0,89,0.00,,,0.00,Wunderground v.1.15,2013-02-26 12:45:00,
2013-02-26 07:46:00,76.2,72.7,29.82,South,172,3.0,9.0,89,0.00,,,0.00,Wunderground v.1.15,2013-02-26 12:46:00,
2013-02-26 07:48:00,76.2,72.7,29.82,South,169,0.0,9.0,89,0.00,,,0.00,Wunderground v.1.15,2013-02-26 12:48:00,
2013-02-26 07:50:00,76.4,72.9,29.82,South,172,0.0,6.0,89,0.00,,,0.00,Wunderground v.1.15,2013-02-26 12:50:00,
2013-02-26 07:51:00,76.5,73.0,29.82,South,174,4.0,7.0,89,0.00,,,0.00,Wunderground v.1.15,2013-02-26 12:51:00,
2013-02-26 07:53:00,76.5,73.0,29.82,South,173,0.0,8.0,89,0.00,,,0.00,Wunderground v.1.15,2013-02-26 12:53:00,
2013-02-26 07:55:00,76.7,72.9,29.82,SSE,163,0.0,8.0,88,0.00,,,0.00,Wunderground v.1.15,2013-02-26 12:55:00,
2013-02-26 07:56:00,76.7,72.9,29.82,SSE,163,0.0,8.0,88,0.00,,,0.00,Wunderground v.1.15,2013-02-26 12:56:00,
2013-02-26 08:00:00,77.0,72.8,29.82,South,182,5.0,5.0,87,0.00,,,0.00,Wunderground v.1.15,2013-02-26 13:00:00,
2013-02-26 08:01:00,77.0,72.8,29.82,SSW,199,0.0,8.0,87,0.00,,,0.00,Wunderground v.1.15,2013-02-26 13:01:00,
2013-02-26 08:02:00,77.1,72.9,29.82,South,169,4.0,8.0,87,0.00,,,0.00,Wunderground v.1.15,2013-02-26 13:02:00,
2013-02-26 08:05:00,77.3,72.8,29.82,SSE,159,7.0,11.0,86,0.00,,,0.00,Wunderground v.1.15,2013-02-26 13:05:00,
2013-02-26 08:06:00,77.4,72.9,29.82,South,184,9.0,11.0,86,0.00,,,0.00,Wunderground v.1.15,2013-02-26 13:06:00,
2013-02-26 08:07:00,77.5,73.0,29.82,South,180,6.0,11.0,86,0.00,,,0.00,Wunderground v.1.15,2013-02-26 13:07:00,
2013-02-26 08:10:00,77.7,72.8,29.82,South,182,8.0,8.0,85,0.00,,,0.00,Wunderground v.1.15,2013-02-26 13:10:00,
2013-02-26 08:12:00,77.8,72.9,29.82,SSE,161,5.0,12.0,85,0.00,,,0.00,Wunderground v.1.15,2013-02-26 13:12:00,
2013-02-26 08:15:00,77.9,72.7,29.83,South,169,4.0,12.0,84,0.00,,,0.00,Wunderground v.1.15,2013-02-26 13:15:00,
2013-02-26 08:17:00,78.1,72.9,29.83,SSW,202,0.0,12.0,84,0.00,,,0.00,Wunderground v.1.15,2013-02-26 13:17:00,
2013-02-26 08:18:00,78.2,73.0,29.83,South,172,5.0,12.0,84,0.00,,,0.00,Wunderground v.1.15,2013-02-26 13:18:00,
2013-02-26 08:19:00,78.2,73.0,29.83,South,182,4.0,12.0,84,0.00,,,0.00,Wunderground v.1.15,2013-02-26 13:19:00,
2013-02-26 08:20:00,78.3,73.1,29.83,South,170,7.0,8.0,84,0.00,,,0.00,Wunderground v.1.15,2013-02-26 13:20:00,
2013-02-26 08:22:00,78.4,72.8,29.83,South,187,0.0,8.0,83,0.00,,,0.00,Wunderground v.1.15,2013-02-26 13:22:00,
2013-02-26 08:23:00,78.5,72.9,29.83,SSW,208,5.0,8.0,83,0.00,,,0.00,Wunderground v.1.15,2013-02-26 13:23:00,
2013-02-26 08:24:00,78.6,73.0,29.83,South,190,2.0,8.0,83,0.00,,,0.00,Wunderground v.1.15,2013-02-26 13:24:00,
2013-02-26 08:26:00,78.7,73.1,29.83,SSW,195,2.0,8.0,83,0.00,,,0.00,Wunderground v.1.15,2013-02-26 13:26:00,
2013-02-26 08:27:00,78.7,73.1,29.83,SSE,164,7.0,8.0,83,0.00,,,0.00,Wunderground v.1.15,2013-02-26 13:27:00,
2013-02-26 08:29:00,78.7,73.1,29.83,South,171,4.0,11.0,83,0.00,,,0.00,Wunderground v.1.15,2013-02-26 13:29:00,
2013-02-26 08:31:00,78.6,72.6,29.83,SSE,163,7.0,12.0,82,0.00,,,0.00,Wunderground v.1.15,2013-02-26 13:31:00,
2013-02-26 08:32:00,78.5,72.5,29.83,South,175,0.0,14.0,82,0.00,,,0.00,Wunderground v.1.15,2013-02-26 13:32:00,
2013-02-26 08:34:00,78.4,72.4,29.83,South,172,7.0,14.0,82,0.00,,,0.00,Wunderground v.1.15,2013-02-26 13:34:00,
2013-02-26 08:36:00,78.4,72.4,29.83,SSE,160,5.0,14.0,82,0.00,,,0.00,Wunderground v.1.15,2013-02-26 13:36:00,
2013-02-26 08:37:00,78.4,72.4,29.83,South,185,8.0,14.0,82,0.00,,,0.00,Wunderground v.1.15,2013-02-26 13:37:00,
2013-02-26 08:39:00,78.4,72.8,29.83,South,169,1.0,6.0,83,0.00,,,0.00,Wunderground v.1.15,2013-02-26 13:39:00,
2013-02-26 08:40:00,78.4,72.8,29.83,South,178,5.0,8.0,83,0.00,,,0.00,Wunderground v.1.15,2013-02-26 13:40:00,
2013-02-26 08:42:00,78.5,72.9,29.83,South,189,7.0,12.0,83,0.00,,,0.00,Wunderground v.1.15,2013-02-26 13:42:00,
2013-02-26 08:45:00,78.3,72.3,29.83,South,173,0.0,12.0,82,0.00,,,0.00,Wunderground v.1.15,2013-02-26 13:45:00,
2013-02-26 08:47:00,78.2,72.3,29.83,SSE,157,4.0,12.0,82,0.00,,,0.00,Wunderground v.1.15,2013-02-26 13:47:00,
2013-02-26 08:48:00,78.2,72.6,29.83,SSE,157,0.0,12.0,83,0.00,,,0.00,Wunderground v.1.15,2013-02-26 13:48:00,
2013-02-26 08:50:00,78.1,72.5,29.83,South,170,5.0,6.0,83,0.00,,,0.00,Wunderground v.1.15,2013-02-26 13:50:00,
2013-02-26 08:52:00,78.2,72.6,29.83,SSW,205,5.0,6.0,83,0.00,,,0.00,Wunderground v.1.15,2013-02-26 13:52:00,
2013-02-26 08:53:00,78.2,72.6,29.83,South,184,4.0,6.0,83,0.00,,,0.00,Wunderground v.1.15,2013-02-26 13:53:00,
2013-02-26 08:56:00,78.5,72.5,29.83,South,175,0.0,8.0,82,0.00,,,0.00,Wunderground v.1.15,2013-02-26 13:56:00,
2013-02-26 08:57:00,78.5,72.5,29.83,South,171,8.0,11.0,82,0.00,,,0.00,Wunderground v.1.15,2013-02-26 13:57:00,
2013-02-26 08:59:00,78.7,72.0,29.83,South,179,8.0,8.0,80,0.00,,,0.00,Wunderground v.1.15,2013-02-26 13:59:00,
2013-02-26 09:02:00,78.9,72.2,29.83,South,171,6.0,10.0,80,0.00,,,0.00,Wunderground v.1.15,2013-02-26 14:02:00,
2013-02-26 09:03:00,79.0,72.7,29.83,South,182,2.0,10.0,81,0.00,,,0.00,Wunderground v.1.15,2013-02-26 14:03:00,
2013-02-26 09:05:00,79.2,72.5,29.83,South,185,1.0,10.0,80,0.00,,,0.00,Wunderground v.1.15,2013-02-26 14:05:00,
2013-02-26 09:07:00,79.4,72.3,29.83,SSE,161,0.0,10.0,79,0.00,,,0.00,Wunderground v.1.15,2013-02-26 14:07:00,
2013-02-26 09:09:00,79.5,72.4,29.83,South,178,7.0,10.0,79,0.00,,,0.00,Wunderground v.1.15,2013-02-26 14:09:00,
2013-02-26 09:10:00,79.7,72.6,29.83,South,180,5.0,6.0,79,0.00,,,0.00,Wunderground v.1.15,2013-02-26 14:10:00,
2013-02-26 09:12:00,79.8,72.7,29.83,SSE,165,0.0,7.0,79,0.00,,,0.00,Wunderground v.1.15,2013-02-26 14:12:00,
2013-02-26 09:13:00,79.8,72.7,29.83,SSE,163,4.0,7.0,79,0.00,,,0.00,Wunderground v.1.15,2013-02-26 14:13:00,
2013-02-26 09:15:00,79.9,72.8,29.83,SW,215,7.0,11.0,79,0.00,,,0.00,Wunderground v.1.15,2013-02-26 14:15:00,
2013-02-26 09:16:00,80.0,72.9,29.83,SSE,167,7.0,11.0,79,0.00,,,0.00,Wunderground v.1.15,2013-02-26 14:16:00,
2013-02-26 09:18:00,80.1,72.2,29.84,South,175,4.0,11.0,77,0.00,,,0.00,Wunderground v.1.15,2013-02-26 14:18:00,
2013-02-26 09:20:00,80.2,72.7,29.83,SSE,149,7.0,8.0,78,0.00,,,0.00,Wunderground v.1.15,2013-02-26 14:20:00,
2013-02-26 09:21:00,80.2,72.3,29.83,SSE,159,6.0,8.0,77,0.00,,,0.00,Wunderground v.1.15,2013-02-26 14:21:00,
2013-02-26 09:23:00,80.2,72.7,29.84,South,169,6.0,8.0,78,0.00,,,0.00,Wunderground v.1.15,2013-02-26 14:23:00,
2013-02-26 09:24:00,80.2,72.3,29.83,SSW,207,6.0,8.0,77,0.00,,,0.00,Wunderground v.1.15,2013-02-26 14:24:00,
2013-02-26 09:25:00,80.3,72.4,29.84,SSE,166,0.0,8.0,77,0.00,,,0.00,Wunderground v.1.15,2013-02-26 14:25:00,
2013-02-26 09:26:00,80.4,72.9,29.84,SSW,207,4.0,8.0,78,0.00,,,0.00,Wunderground v.1.15,2013-02-26 14:26:00,
2013-02-26 09:29:00,80.4,72.5,29.84,South,172,0.0,8.0,77,0.00,,,0.00,Wunderground v.1.15,2013-02-26 14:29:00,
2013-02-26 09:31:00,80.2,72.3,29.84,SSE,162,5.0,8.0,77,0.00,,,0.00,Wunderground v.1.15,2013-02-26 14:31:00,
2013-02-26 09:32:00,80.0,72.1,29.84,South,188,4.0,8.0,77,0.00,,,0.00,Wunderground v.1.15,2013-02-26 14:32:00,
2013-02-26 09:35:00,79.9,71.7,29.84,SSW,192,2.0,11.0,76,0.00,,,0.00,Wunderground v.1.15,2013-02-26 14:35:00,
2013-02-26 09:36:00,79.9,71.7,29.84,SSW,203,8.0,11.0,76,0.00,,,0.00,Wunderground v.1.15,2013-02-26 14:36:00,
2013-02-26 09:37:00,79.9,71.7,29.84,South,185,4.0,11.0,76,0.00,,,0.00,Wunderground v.1.15,2013-02-26 14:37:00,
2013-02-26 09:40:00,80.2,71.9,29.84,SSW,206,5.0,8.0,76,0.00,,,0.00,Wunderground v.1.15,2013-02-26 14:40:00,
2013-02-26 09:41:00,80.4,72.5,29.84,South,170,0.0,8.0,77,0.00,,,0.00,Wunderground v.1.15,2013-02-26 14:41:00,
2013-02-26 09:42:00,80.4,72.1,29.84,South,174,8.0,10.0,76,0.00,,,0.00,Wunderground v.1.15,2013-02-26 14:42:00,
2013-02-26 09:45:00,80.4,72.1,29.85,SSW,199,5.0,12.0,76,0.00,,,0.00,Wunderground v.1.15,2013-02-26 14:45:00,
2013-02-26 09:46:00,80.4,71.7,29.84,SSW,203,5.0,12.0,75,0.00,,,0.00,Wunderground v.1.15,2013-02-26 14:46:00,
2013-02-26 09:47:00,80.5,71.8,29.85,SSW,195,4.0,12.0,75,0.00,,,0.00,Wunderground v.1.15,2013-02-26 14:47:00,
2013-02-26 09:50:00,80.6,71.5,29.85,South,171,4.0,8.0,74,0.00,,,0.00,Wunderground v.1.15,2013-02-26 14:50:00,
2013-02-26 09:51:00,80.7,71.6,29.85,SSE,153,8.0,8.0,74,0.00,,,0.00,Wunderground v.1.15,2013-02-26 14:51:00,
2013-02-26 09:53:00,81.0,71.9,29.85,South,178,5.0,10.0,74,0.00,,,0.00,Wunderground v.1.15,2013-02-26 14:53:00,
2013-02-26 09:55:00,81.0,72.3,29.85,SSW,212,3.0,10.0,75,0.00,,,0.00,Wunderground v.1.15,2013-02-26 14:55:00,
2013-02-26 09:56:00,81.1,72.0,29.85,South,178,0.0,10.0,74,0.00,,,0.00,Wunderground v.1.15,2013-02-26 14:56:00,
2013-02-26 09:58:00,81.0,71.1,29.85,South,170,8.0,12.0,72,0.00,,,0.00,Wunderground v.1.15,2013-02-26 14:58:00,
2013-02-26 10:01:00,81.1,71.6,29.85,South,180,0.0,5.0,73,0.00,,,0.00,Wunderground v.1.15,2013-02-26 15:01:00,
2013-02-26 10:02:00,81.2,72.1,29.85,WSW,237,5.0,5.0,74,0.00,,,0.00,Wunderground v.1.15,2013-02-26 15:02:00,
2013-02-26 10:03:00,81.4,71.9,29.85,South,181,5.0,6.0,73,0.00,,,0.00,Wunderground v.1.15,2013-02-26 15:03:00,
2013-02-26 10:04:00,81.4,71.9,29.85,South,169,0.0,6.0,73,0.00,,,0.00,Wunderground v.1.15,2013-02-26 15:04:00,
2013-02-26 10:07:00,81.3,71.4,29.85,South,180,6.0,10.0,72,0.00,,,0.00,Wunderground v.1.15,2013-02-26 15:07:00,
2013-02-26 10:09:00,81.2,71.3,29.85,SSE,162,4.0,10.0,72,0.00,,,0.00,Wunderground v.1.15,2013-02-26 15:09:00,
2013-02-26 10:12:00,81.1,71.2,29.85,South,173,0.0,9.0,72,0.00,,,0.00,Wunderground v.1.15,2013-02-26 15:12:00,
2013-02-26 10:14:00,81.0,71.5,29.85,SSW,201,4.0,11.0,73,0.00,,,0.00,Wunderground v.1.15,2013-02-26 15:14:00,
2013-02-26 10:15:00,81.0,71.5,29.85,SSE,154,9.0,12.0,73,0.00,,,0.00,Wunderground v.1.15,2013-02-26 15:15:00,
2013-02-26 10:17:00,81.0,71.5,29.85,SSW,200,5.0,12.0,73,0.00,,,0.00,Wunderground v.1.15,2013-02-26 15:17:00,
2013-02-26 10:19:00,81.2,71.7,29.85,South,190,5.0,12.0,73,0.00,,,0.00,Wunderground v.1.15,2013-02-26 15:19:00,
2013-02-26 10:20:00,81.4,71.9,29.85,SSE,163,9.0,9.0,73,0.00,,,0.00,Wunderground v.1.15,2013-02-26 15:20:00,
2013-02-26 10:24:00,81.8,71.9,29.85,South,188,5.0,11.0,72,0.00,,,0.00,Wunderground v.1.15,2013-02-26 15:24:00,
2013-02-26 10:25:00,82.0,72.1,29.85,South,174,5.0,14.0,72,0.00,,,0.00,Wunderground v.1.15,2013-02-26 15:25:00,
2013-02-26 10:26:00,82.0,71.7,29.85,SSE,154,9.0,14.0,71,0.00,,,0.00,Wunderground v.1.15,2013-02-26 15:26:00,
2013-02-26 10:29:00,81.9,72.0,29.85,South,169,3.0,14.0,72,0.00,,,0.00,Wunderground v.1.15,2013-02-26 15:29:00,
2013-02-26 10:30:00,81.9,72.0,29.85,SSW,204,3.0,8.0,72,0.00,,,0.00,Wunderground v.1.15,2013-02-26 15:30:00,
2013-02-26 10:31:00,82.0,72.1,29.85,SSW,192,8.0,8.0,72,0.00,,,0.00,Wunderground v.1.15,2013-02-26 15:31:00,
2013-02-26 10:34:00,82.1,72.2,29.85,South,190,3.0,8.0,72,0.00,,,0.00,Wunderground v.1.15,2013-02-26 15:34:00,
2013-02-26 10:35:00,82.1,72.2,29.85,SSW,208,10.0,10.0,72,0.00,,,0.00,Wunderground v.1.15,2013-02-26 15:35:00,
2013-02-26 10:36:00,82.0,71.7,29.85,South,177,2.0,10.0,71,0.00,,,0.00,Wunderground v.1.15,2013-02-26 15:36:00,
2013-02-26 10:37:00,82.0,71.7,29.85,South,180,0.0,10.0,71,0.00,,,0.00,Wunderground v.1.15,2013-02-26 15:37:00,
2013-02-26 10:40:00,81.8,72.3,29.85,South,185,9.0,9.0,73,0.00,,,0.00,Wunderground v.1.15,2013-02-26 15:40:00,
2013-02-26 10:41:00,81.6,71.7,29.85,SSE,164,6.0,9.0,72,0.00,,,0.00,Wunderground v.1.15,2013-02-26 15:41:00,
2013-02-26 10:42:00,81.5,71.6,29.85,South,189,0.0,9.0,72,0.00,,,0.00,Wunderground v.1.15,2013-02-26 15:42:00,
2013-02-26 10:45:00,81.3,71.8,29.84,South,173,2.0,9.0,73,0.00,,,0.00,Wunderground v.1.15,2013-02-26 15:45:00,
2013-02-26 10:46:00,81.3,71.8,29.84,South,187,0.0,9.0,73,0.00,,,0.00,Wunderground v.1.15,2013-02-26 15:46:00,
2013-02-26 10:48:00,81.7,72.6,29.84,SSE,165,6.0,9.0,74,0.00,,,0.00,Wunderground v.1.15,2013-02-26 15:48:00,
2013-02-26 10:51:00,82.5,73.0,29.84,SSW,202,10.0,10.0,73,0.00,,,0.00,Wunderground v.1.15,2013-02-26 15:51:00,
2013-02-26 10:52:00,82.8,72.8,29.84,South,178,4.0,10.0,72,0.00,,,0.00,Wunderground v.1.15,2013-02-26 15:52:00,
2013-02-26 10:53:00,83.0,73.0,29.84,South,188,0.0,10.0,72,0.00,,,0.00,Wunderground v.1.15,2013-02-26 15:53:00,
2013-02-26 10:56:00,83.4,71.7,29.84,SSW,199,6.0,12.0,68,0.00,,,0.00,Wunderground v.1.15,2013-02-26 15:56:00,
2013-02-26 10:58:00,83.2,72.0,29.84,SSE,168,1.0,12.0,69,0.00,,,0.00,Wunderground v.1.15,2013-02-26 15:58:00,
2013-02-26 11:01:00,83.2,72.4,29.84,SSW,198,8.0,8.0,70,0.00,,,0.00,Wunderground v.1.15,2013-02-26 16:01:00,
2013-02-26 11:03:00,83.2,72.4,29.84,SSW,209,3.0,11.0,70,0.00,,,0.00,Wunderground v.1.15,2013-02-26 16:03:00,
2013-02-26 11:04:00,83.2,71.5,29.84,South,171,7.0,11.0,68,0.00,,,0.00,Wunderground v.1.15,2013-02-26 16:04:00,
2013-02-26 11:06:00,83.0,71.8,29.84,SW,214,7.0,16.0,69,0.00,,,0.00,Wunderground v.1.15,2013-02-26 16:06:00,
2013-02-26 11:07:00,83.0,71.8,29.84,SSW,206,6.0,16.0,69,0.00,,,0.00,Wunderground v.1.15,2013-02-26 16:07:00,
2013-02-26 11:09:00,83.0,71.8,29.84,South,186,3.0,16.0,69,0.00,,,0.00,Wunderground v.1.15,2013-02-26 16:09:00,
2013-02-26 11:11:00,83.2,72.4,29.84,SSW,198,1.0,8.0,70,0.00,,,0.00,Wunderground v.1.15,2013-02-26 16:11:00,
2013-02-26 11:12:00,83.2,72.4,29.84,SSW,209,0.0,8.0,70,0.00,,,0.00,Wunderground v.1.15,2013-02-26 16:12:00,
2013-02-26 11:14:00,83.7,73.3,29.84,SSE,158,6.0,8.0,71,0.00,,,0.00,Wunderground v.1.15,2013-02-26 16:14:00,
2013-02-26 11:15:00,83.8,72.5,29.84,SW,215,1.0,8.0,69,0.00,,,0.00,Wunderground v.1.15,2013-02-26 16:15:00,
2013-02-26 11:17:00,84.0,72.3,29.85,SW,214,2.0,8.0,68,0.00,,,0.00,Wunderground v.1.15,2013-02-26 16:17:00,
2013-02-26 11:19:00,84.1,72.8,29.85,SSW,207,6.0,9.0,69,0.00,,,0.00,Wunderground v.1.15,2013-02-26 16:19:00,
2013-02-26 11:21:00,84.0,71.9,29.85,South,179,1.0,9.0,67,0.00,,,0.00,Wunderground v.1.15,2013-02-26 16:21:00,
2013-02-26 11:22:00,83.8,72.1,29.85,SW,217,0.0,9.0,68,0.00,,,0.00,Wunderground v.1.15,2013-02-26 16:22:00,
2013-02-26 11:25:00,83.5,72.3,29.85,West,270,4.0,9.0,69,0.00,,,0.00,Wunderground v.1.15,2013-02-26 16:25:00,
2013-02-26 11:26:00,83.3,71.6,29.85,WSW,247,5.0,9.0,68,0.00,,,0.00,Wunderground v.1.15,2013-02-26 16:26:00,
2013-02-26 11:27:00,83.2,71.5,29.85,SSW,205,9.0,9.0,68,0.00,,,0.00,Wunderground v.1.15,2013-02-26 16:27:00,
2013-02-26 11:28:00,83.1,71.4,29.85,WSW,254,5.0,9.0,68,0.00,,,0.00,Wunderground v.1.15,2013-02-26 16:28:00,
2013-02-26 11:30:00,82.8,71.2,29.85,SSW,196,9.0,9.0,68,0.00,,,0.00,Wunderground v.1.15,2013-02-26 16:30:00,
2013-02-26 11:31:00,82.7,71.1,29.86,WSW,244,0.0,9.0,68,0.00,,,0.00,Wunderground v.1.15,2013-02-26 16:31:00,
2013-02-26 11:33:00,82.8,72.0,29.85,SSW,200,0.0,9.0,70,0.00,,,0.00,Wunderground v.1.15,2013-02-26 16:33:00,
2013-02-26 11:35:00,83.3,72.9,29.85,SSW,194,10.0,10.0,71,0.00,,,0.00,Wunderground v.1.15,2013-02-26 16:35:00,
2013-02-26 11:37:00,83.4,71.7,29.85,SSE,157,5.0,10.0,68,0.00,,,0.00,Wunderground v.1.15,2013-02-26 16:37:00,
2013-02-26 11:38:00,83.4,72.2,29.85,South,177,5.0,10.0,69,0.00,,,0.00,Wunderground v.1.15,2013-02-26 16:38:00,
2013-02-26 11:39:00,83.4,72.2,29.85,SSW,194,6.0,10.0,69,0.00,,,0.00,Wunderground v.1.15,2013-02-26 16:39:00,
2013-02-26 11:42:00,83.4,73.0,29.85,West,260,1.0,5.0,71,0.00,,,0.00,Wunderground v.1.15,2013-02-26 16:42:00,
2013-02-26 11:43:00,83.7,73.7,29.85,SW,218,5.0,7.0,72,0.00,,,0.00,Wunderground v.1.15,2013-02-26 16:43:00,
2013-02-26 11:44:00,83.9,73.5,29.85,SSE,167,7.0,7.0,71,0.00,,,0.00,Wunderground v.1.15,2013-02-26 16:44:00,
2013-02-26 11:47:00,84.7,73.4,29.85,WSW,250,1.0,7.0,69,0.00,,,0.00,Wunderground v.1.15,2013-02-26 16:47:00,
2013-02-26 11:48:00,84.8,73.5,29.85,West,271,2.0,7.0,69,0.00,,,0.00,Wunderground v.1.15,2013-02-26 16:48:00,
2013-02-26 11:49:00,84.8,73.1,29.85,SSW,200,2.0,7.0,68,0.00,,,0.00,Wunderground v.1.15,2013-02-26 16:49:00,
2013-02-26 11:53:00,84.3,73.0,29.86,SSW,203,0.0,15.0,69,0.00,,,0.00,Wunderground v.1.15,2013-02-26 16:53:00,
2013-02-26 11:54:00,84.3,73.0,29.86,South,189,4.0,15.0,69,0.00,,,0.00,Wunderground v.1.15,2013-02-26 16:54:00,
2013-02-26 11:55:00,84.3,73.0,29.86,South,187,7.0,15.0,69,0.00,,,0.00,Wunderground v.1.15,2013-02-26 16:55:00,
2013-02-26 11:59:00,83.7,71.6,29.86,South,178,5.0,15.0,67,0.00,,,0.00,Wunderground v.1.15,2013-02-26 16:59:00,
2013-02-26 12:00:00,83.5,71.4,29.86,South,177,0.0,6.0,67,0.00,,,0.00,Wunderground v.1.15,2013-02-26 17:00:00,
2013-02-26 12:04:00,83.2,71.5,29.86,South,176,6.0,10.0,68,0.00,,,0.00,Wunderground v.1.15,2013-02-26 17:04:00,
2013-02-26 12:05:00,83.2,71.5,29.86,SW,219,7.0,12.0,68,0.00,,,0.00,Wunderground v.1.15,2013-02-26 17:05:00,
2013-02-26 12:09:00,82.9,71.7,29.86,SSW,196,6.0,12.0,69,0.00,,,0.00,Wunderground v.1.15,2013-02-26 17:09:00,
2013-02-26 12:10:00,82.9,72.1,29.86,SSW,195,0.0,4.0,70,0.00,,,0.00,Wunderground v.1.15,2013-02-26 17:10:00,
2013-02-26 12:11:00,83.0,72.6,29.86,SSW,194,4.0,7.0,71,0.00,,,0.00,Wunderground v.1.15,2013-02-26 17:11:00,
2013-02-26 12:14:00,83.9,73.5,29.86,WSW,239,0.0,7.0,71,0.00,,,0.00,Wunderground v.1.15,2013-02-26 17:14:00,
2013-02-26 12:15:00,84.1,73.7,29.86,South,184,2.0,7.0,71,0.00,,,0.00,Wunderground v.1.15,2013-02-26 17:15:00,
2013-02-26 12:16:00,84.3,73.4,29.86,West,262,5.0,7.0,70,0.00,,,0.00,Wunderground v.1.15,2013-02-26 17:16:00,
2013-02-26 12:18:00,84.5,73.2,29.86,SE,146,5.0,8.0,69,0.00,,,0.00,Wunderground v.1.15,2013-02-26 17:18:00,
2013-02-26 12:19:00,84.3,73.0,29.86,SSW,194,1.0,3.0,69,0.00,,,0.00,Wunderground v.1.15,2013-02-26 17:19:00,
2013-02-26 12:20:00,84.1,72.8,29.86,SW,221,1.0,3.0,69,0.00,,,0.00,Wunderground v.1.15,2013-02-26 17:20:00,
2013-02-26 12:21:00,84.0,72.7,29.86,SSW,213,0.0,6.0,69,0.00,,,0.00,Wunderground v.1.15,2013-02-26 17:21:00,
2013-02-26 12:23:00,84.1,73.3,29.86,SW,218,7.0,11.0,70,0.00,,,0.00,Wunderground v.1.15,2013-02-26 17:23:00,
2013-02-26 12:25:00,84.2,73.3,29.85,WSW,237,6.0,11.0,70,0.00,,,0.00,Wunderground v.1.15,2013-02-26 17:25:00,
2013-02-26 12:26:00,84.4,73.1,29.85,SSE,162,8.0,11.0,69,0.00,,,0.00,Wunderground v.1.15,2013-02-26 17:26:00,
2013-02-26 12:28:00,84.1,72.4,29.85,South,187,4.0,11.0,68,0.00,,,0.00,Wunderground v.1.15,2013-02-26 17:28:00,
2013-02-26 12:30:00,83.8,72.5,29.85,SSW,192,5.0,8.0,69,0.00,,,0.00,Wunderground v.1.15,2013-02-26 17:30:00,
2013-02-26 12:31:00,83.5,72.3,29.85,SSW,198,5.0,8.0,69,0.00,,,0.00,Wunderground v.1.15,2013-02-26 17:31:00,
2013-02-26 12:32:00,83.4,72.6,29.85,SSE,162,6.0,10.0,70,0.00,,,0.00,Wunderground v.1.15,2013-02-26 17:32:00,
2013-02-26 12:34:00,83.5,73.1,29.85,South,191,9.0,10.0,71,0.00,,,0.00,Wunderground v.1.15,2013-02-26 17:34:00,
2013-02-26 12:36:00,83.8,73.4,29.85,West,272,2.0,11.0,71,0.00,,,0.00,Wunderground v.1.15,2013-02-26 17:36:00,
2013-02-26 12:38:00,83.9,73.1,29.85,South,178,3.0,11.0,70,0.00,,,0.00,Wunderground v.1.15,2013-02-26 17:38:00,
2013-02-26 12:40:00,83.6,72.3,29.85,West,266,0.0,6.0,69,0.00,,,0.00,Wunderground v.1.15,2013-02-26 17:40:00,
2013-02-26 12:41:00,83.5,72.7,29.85,SSW,210,1.0,6.0,70,0.00,,,0.00,Wunderground v.1.15,2013-02-26 17:41:00,
2013-02-26 12:43:00,83.1,72.7,29.85,SSW,200,2.0,7.0,71,0.00,,,0.00,Wunderground v.1.15,2013-02-26 17:43:00,
2013-02-26 12:46:00,82.8,72.4,29.85,SSW,198,0.0,14.0,71,0.00,,,0.00,Wunderground v.1.15,2013-02-26 17:46:00,
2013-02-26 12:47:00,82.6,72.2,29.85,South,191,3.0,14.0,71,0.00,,,0.00,Wunderground v.1.15,2013-02-26 17:47:00,
2013-02-26 12:48:00,82.6,72.7,29.85,SW,215,5.0,14.0,72,0.00,,,0.00,Wunderground v.1.15,2013-02-26 17:48:00,
2013-02-26 12:52:00,82.6,72.7,29.84,South,190,0.0,4.0,72,0.00,,,0.00,Wunderground v.1.15,2013-02-26 17:52:00,
2013-02-26 12:53:00,82.7,72.7,29.84,SW,223,5.0,7.0,72,0.00,,,0.00,Wunderground v.1.15,2013-02-26 17:53:00,
2013-02-26 12:57:00,82.6,72.7,29.84,South,188,3.0,7.0,72,0.00,,,0.00,Wunderground v.1.15,2013-02-26 17:57:00,
2013-02-26 12:59:00,82.4,72.5,29.84,South,175,0.0,7.0,72,0.00,,,0.00,Wunderground v.1.15,2013-02-26 17:59:00,
2013-02-26 13:02:00,82.2,71.9,29.84,SW,234,1.0,6.0,71,0.00,,,0.00,Wunderground v.1.15,2013-02-26 18:02:00,
2013-02-26 13:03:00,82.3,72.0,29.84,South,191,6.0,11.0,71,0.00,,,0.00,Wunderground v.1.15,2013-02-26 18:03:00,
2013-02-26 13:04:00,82.4,72.0,29.84,SSW,209,1.0,11.0,71,0.00,,,0.00,Wunderground v.1.15,2013-02-26 18:04:00,
2013-02-26 13:07:00,83.3,73.7,29.84,SSE,167,3.0,12.0,73,0.00,,,0.00,Wunderground v.1.15,2013-02-26 18:07:00,
2013-02-26 13:08:00,83.4,73.8,29.84,South,171,4.0,12.0,73,0.00,,,0.00,Wunderground v.1.15,2013-02-26 18:08:00,
2013-02-26 13:09:00,83.4,73.4,29.84,SSW,210,8.0,12.0,72,0.00,,,0.00,Wunderground v.1.15,2013-02-26 18:09:00,
2013-02-26 13:13:00,82.8,72.4,29.83,SSW,212,8.0,14.0,71,0.00,,,0.00,Wunderground v.1.15,2013-02-26 18:13:00,
2013-02-26 13:14:00,82.5,72.1,29.83,South,179,9.0,14.0,71,0.00,,,0.00,Wunderground v.1.15,2013-02-26 18:14:00,
2013-02-26 13:18:00,82.1,72.2,29.82,SSW,212,11.0,15.0,72,0.00,,,0.00,Wunderground v.1.15,2013-02-26 18:18:00,
2013-02-26 13:19:00,82.0,72.5,29.82,South,182,6.0,7.0,73,0.00,,,0.00,Wunderground v.1.15,2013-02-26 18:19:00,
2013-02-26 13:21:00,82.0,72.5,29.82,South,187,5.0,12.0,73,0.00,,,0.00,Wunderground v.1.15,2013-02-26 18:21:00,
2013-02-26 13:23:00,82.3,73.2,29.82,South,178,4.0,12.0,74,0.00,,,0.00,Wunderground v.1.15,2013-02-26 18:23:00,
2013-02-26 13:24:00,82.5,73.0,29.81,SW,215,6.0,12.0,73,0.00,,,0.00,Wunderground v.1.15,2013-02-26 18:24:00,
2013-02-26 13:26:00,82.9,73.4,29.81,SSE,163,1.0,12.0,73,0.00,,,0.00,Wunderground v.1.15,2013-02-26 18:26:00,
2013-02-26 13:27:00,83.0,73.4,29.81,SSE,150,7.0,12.0,73,0.00,,,0.00,Wunderground v.1.15,2013-02-26 18:27:00,
2013-02-26 13:30:00,83.4,73.4,29.81,SSW,192,1.0,6.0,72,0.00,,,0.00,Wunderground v.1.15,2013-02-26 18:30:00,
2013-02-26 13:31:00,83.6,73.6,29.81,South,177,11.0,11.0,72,0.00,,,0.00,Wunderground v.1.15,2013-02-26 18:31:00,
2013-02-26 13:32:00,83.6,73.2,29.81,SSW,204,7.0,11.0,71,0.00,,,0.00,Wunderground v.1.15,2013-02-26 18:32:00,
2013-02-26 13:35:00,83.8,73.4,29.81,SW,234,1.0,11.0,71,0.00,,,0.00,Wunderground v.1.15,2013-02-26 18:35:00,
2013-02-26 13:36:00,83.9,73.5,29.81,South,178,10.0,12.0,71,0.00,,,0.00,Wunderground v.1.15,2013-02-26 18:36:00,
2013-02-26 13:38:00,83.7,72.9,29.81,South,184,9.0,12.0,70,0.00,,,0.00,Wunderground v.1.15,2013-02-26 18:38:00,
2013-02-26 13:41:00,83.2,72.8,29.81,SSW,206,7.0,11.0,71,0.00,,,0.00,Wunderground v.1.15,2013-02-26 18:41:00,
2013-02-26 13:42:00,83.1,72.7,29.81,SSE,165,5.0,11.0,71,0.00,,,0.00,Wunderground v.1.15,2013-02-26 18:42:00,
2013-02-26 13:43:00,83.0,72.6,29.81,SSW,207,7.0,11.0,71,0.00,,,0.00,Wunderground v.1.15,2013-02-26 18:43:00,
2013-02-26 13:46:00,83.2,72.8,29.81,SE,137,11.0,13.0,71,0.00,,,0.00,Wunderground v.1.15,2013-02-26 18:46:00,
2013-02-26 13:47:00,83.2,72.8,29.81,South,172,11.0,13.0,71,0.00,,,0.00,Wunderground v.1.15,2013-02-26 18:47:00,
2013-02-26 13:48:00,83.0,72.6,29.82,South,188,1.0,13.0,71,0.00,,,0.00,Wunderground v.1.15,2013-02-26 18:48:00,
2013-02-26 13:52:00,82.9,72.9,29.82,SSW,194,6.0,6.0,72,0.00,,,0.00,Wunderground v.1.15,2013-02-26 18:52:00,
2013-02-26 13:54:00,83.0,73.0,29.81,SSW,194,1.0,10.0,72,0.00,,,0.00,Wunderground v.1.15,2013-02-26 18:54:00,
2013-02-26 13:57:00,83.1,73.5,29.81,SSW,200,4.0,12.0,73,0.00,,,0.00,Wunderground v.1.15,2013-02-26 18:57:00,
2013-02-26 13:58:00,83.1,73.1,29.81,SSW,208,6.0,12.0,72,0.00,,,0.00,Wunderground v.1.15,2013-02-26 18:58:00,
2013-02-26 13:59:00,83.1,73.1,29.81,South,189,5.0,12.0,72,0.00,,,0.00,Wunderground v.1.15,2013-02-26 18:59:00,
2013-02-26 14:02:00,83.0,72.6,29.81,WSW,238,14.0,14.0,71,0.00,,,0.00,Wunderground v.1.15,2013-02-26 19:02:00,
2013-02-26 14:03:00,83.1,73.1,29.81,South,179,10.0,14.0,72,0.00,,,0.00,Wunderground v.1.15,2013-02-26 19:03:00,
2013-02-26 14:05:00,83.0,73.0,29.81,SE,144,15.0,15.0,72,0.00,,,0.00,Wunderground v.1.15,2013-02-26 19:05:00,
2013-02-26 14:07:00,83.0,73.0,29.81,SSE,157,6.0,15.0,72,0.00,,,0.00,Wunderground v.1.15,2013-02-26 19:07:00,
2013-02-26 14:08:00,82.9,72.9,29.80,SSE,166,1.0,15.0,72,0.00,,,0.00,Wunderground v.1.15,2013-02-26 19:08:00,
2013-02-26 14:11:00,82.9,72.9,29.80,South,186,4.0,12.0,72,0.00,,,0.00,Wunderground v.1.15,2013-02-26 19:11:00,
2013-02-26 14:12:00,83.1,73.1,29.80,SSW,202,5.0,12.0,72,0.00,,,0.00,Wunderground v.1.15,2013-02-26 19:12:00,
2013-02-26 14:13:00,83.3,73.3,29.80,SW,232,1.0,12.0,72,0.00,,,0.00,Wunderground v.1.15,2013-02-26 19:13:00,
2013-02-26 14:15:00,83.5,73.1,29.80,SSE,165,6.0,12.0,71,0.00,,,0.00,Wunderground v.1.15,2013-02-26 19:15:00,
2013-02-26 14:16:00,83.6,73.2,29.80,South,173,0.0,12.0,71,0.00,,,0.00,Wunderground v.1.15,2013-02-26 19:16:00,
2013-02-26 14:18:00,83.7,72.9,29.80,South,169,6.0,12.0,70,0.00,,,0.00,Wunderground v.1.15,2013-02-26 19:18:00,
2013-02-26 14:19:00,83.8,73.0,29.80,SSW,192,4.0,12.0,70,0.00,,,0.00,Wunderground v.1.15,2013-02-26 19:19:00,
2013-02-26 14:20:00,83.7,72.9,29.80,SW,219,6.0,8.0,70,0.00,,,0.00,Wunderground v.1.15,2013-02-26 19:20:00,
2013-02-26 14:21:00,83.7,72.9,29.80,SW,224,6.0,9.0,70,0.00,,,0.00,Wunderground v.1.15,2013-02-26 19:21:00,
2013-02-26 14:23:00,83.5,72.7,29.80,West,279,0.0,9.0,70,0.00,,,0.00,Wunderground v.1.15,2013-02-26 19:23:00,
2013-02-26 14:24:00,83.4,73.0,29.80,South,188,0.0,9.0,71,0.00,,,0.00,Wunderground v.1.15,2013-02-26 19:24:00,
2013-02-26 14:26:00,83.3,72.9,29.80,South,190,7.0,10.0,71,0.00,,,0.00,Wunderground v.1.15,2013-02-26 19:26:00,
2013-02-26 14:28:00,83.0,72.6,29.80,South,189,8.0,12.0,71,0.00,,,0.00,Wunderground v.1.15,2013-02-26 19:28:00,
2013-02-26 14:31:00,83.0,72.6,29.80,South,190,4.0,5.0,71,0.00,,,0.00,Wunderground v.1.15,2013-02-26 19:31:00,
2013-02-26 14:32:00,83.1,72.7,29.80,South,169,5.0,10.0,71,0.00,,,0.00,Wunderground v.1.15,2013-02-26 19:32:00,
2013-02-26 14:34:00,83.4,73.4,29.79,SW,227,5.0,12.0,72,0.00,,,0.00,Wunderground v.1.15,2013-02-26 19:34:00,
2013-02-26 14:36:00,83.7,73.3,29.79,SSW,199,4.0,12.0,71,0.00,,,0.00,Wunderground v.1.15,2013-02-26 19:36:00,
2013-02-26 14:37:00,83.8,73.4,29.79,SSE,161,5.0,12.0,71,0.00,,,0.00,Wunderground v.1.15,2013-02-26 19:37:00,
2013-02-26 14:39:00,84.1,73.3,29.79,South,175,0.0,12.0,70,0.00,,,0.00,Wunderground v.1.15,2013-02-26 19:39:00,
2013-02-26 14:41:00,84.4,73.5,29.79,SW,219,5.0,5.0,70,0.00,,,0.00,Wunderground v.1.15,2013-02-26 19:41:00,
2013-02-26 14:42:00,84.6,73.7,29.79,SSW,207,3.0,6.0,70,0.00,,,0.00,Wunderground v.1.15,2013-02-26 19:42:00,
2013-02-26 14:44:00,84.8,73.1,29.79,SW,220,2.0,10.0,68,0.00,,,0.00,Wunderground v.1.15,2013-02-26 19:44:00,
2013-02-26 14:46:00,84.7,72.5,29.79,SSE,156,8.0,14.0,67,0.00,,,0.00,Wunderground v.1.15,2013-02-26 19:46:00,
2013-02-26 14:47:00,84.7,72.5,29.79,SSE,164,6.0,14.0,67,0.00,,,0.00,Wunderground v.1.15,2013-02-26 19:47:00,
2013-02-26 14:50:00,84.4,72.2,29.79,SSE,167,0.0,4.0,67,0.00,,,0.00,Wunderground v.1.15,2013-02-26 19:50:00,
2013-02-26 14:53:00,84.4,72.7,29.79,South,175,5.0,10.0,68,0.00,,,0.00,Wunderground v.1.15,2013-02-26 19:53:00,
2013-02-26 14:54:00,84.3,72.1,29.79,SSE,166,4.0,11.0,67,0.00,,,0.00,Wunderground v.1.15,2013-02-26 19:54:00,
2013-02-26 14:55:00,84.1,72.4,29.79,South,188,1.0,11.0,68,0.00,,,0.00,Wunderground v.1.15,2013-02-26 19:55:00,
2013-02-26 14:58:00,83.8,72.5,29.79,South,173,5.0,14.0,69,0.00,,,0.00,Wunderground v.1.15,2013-02-26 19:58:00,
2013-02-26 14:59:00,83.8,72.5,29.79,South,173,7.0,14.0,69,0.00,,,0.00,Wunderground v.1.15,2013-02-26 19:59:00,
2013-02-26 15:00:00,83.7,72.4,29.79,South,186,7.0,10.0,69,0.00,,,0.00,Wunderground v.1.15,2013-02-26 20:00:00,
2013-02-26 15:03:00,83.6,72.3,29.78,South,179,4.0,10.0,69,0.00,,,0.00,Wunderground v.1.15,2013-02-26 20:03:00,
2013-02-26 15:04:00,83.5,72.3,29.78,SSW,207,0.0,10.0,69,0.00,,,0.00,Wunderground v.1.15,2013-02-26 20:04:00,
2013-02-26 15:05:00,83.5,72.7,29.78,SSW,208,4.0,10.0,70,0.00,,,0.00,Wunderground v.1.15,2013-02-26 20:05:00,
2013-02-26 15:08:00,83.8,73.0,29.78,SW,215,9.0,11.0,70,0.00,,,0.00,Wunderground v.1.15,2013-02-26 20:08:00,
2013-02-26 15:10:00,83.8,72.5,29.79,South,190,4.0,8.0,69,0.00,,,0.00,Wunderground v.1.15,2013-02-26 20:10:00,
2013-02-26 15:11:00,83.8,72.5,29.79,SSW,211,6.0,8.0,69,0.00,,,0.00,Wunderground v.1.15,2013-02-26 20:11:00,
2013-02-26 15:14:00,83.6,72.8,29.78,South,188,4.0,10.0,70,0.00,,,0.00,Wunderground v.1.15,2013-02-26 20:14:00,
2013-02-26 15:16:00,83.4,72.2,29.78,SSE,157,11.0,11.0,69,0.00,,,0.00,Wunderground v.1.15,2013-02-26 20:16:00,
2013-02-26 15:17:00,83.4,72.6,29.78,SSE,167,8.0,11.0,70,0.00,,,0.00,Wunderground v.1.15,2013-02-26 20:17:00,
2013-02-26 15:20:00,83.3,72.5,29.78,SSW,205,6.0,6.0,70,0.00,,,0.00,Wunderground v.1.15,2013-02-26 20:20:00,
2013-02-26 15:21:00,83.2,72.4,29.78,South,189,5.0,16.0,70,0.00,,,0.00,Wunderground v.1.15,2013-02-26 20:21:00,
2013-02-26 15:22:00,83.1,72.3,29.78,South,184,6.0,16.0,70,0.00,,,0.00,Wunderground v.1.15,2013-02-26 20:22:00,
2013-02-26 15:23:00,83.1,72.3,29.78,SSW,192,4.0,16.0,70,0.00,,,0.00,Wunderground v.1.15,2013-02-26 20:23:00,
2013-02-26 15:25:00,83.2,72.4,29.78,SW,214,6.0,16.0,70,0.00,,,0.00,Wunderground v.1.15,2013-02-26 20:25:00,
2013-02-26 15:26:00,83.1,72.3,29.78,South,188,0.0,16.0,70,0.00,,,0.00,Wunderground v.1.15,2013-02-26 20:26:00,
2013-02-26 15:27:00,83.2,72.4,29.78,South,187,1.0,16.0,70,0.00,,,0.00,Wunderground v.1.15,2013-02-26 20:27:00,
2013-02-26 15:28:00,83.1,72.3,29.78,South,185,19.0,19.0,70,0.00,,,0.00,Wunderground v.1.15,2013-02-26 20:28:00,
2013-02-26 15:32:00,82.9,72.5,29.78,SW,219,1.0,8.0,71,0.00,,,0.00,Wunderground v.1.15,2013-02-26 20:32:00,
2013-02-26 15:33:00,82.7,72.3,29.78,SSE,166,9.0,9.0,71,0.00,,,0.00,Wunderground v.1.15,2013-02-26 20:33:00,
2013-02-26 15:37:00,82.4,72.0,29.78,SSW,203,5.0,11.0,71,0.00,,,0.00,Wunderground v.1.15,2013-02-26 20:37:00,
2013-02-26 15:38:00,82.4,72.0,29.78,South,175,6.0,11.0,71,0.00,,,0.00,Wunderground v.1.15,2013-02-26 20:38:00,
2013-02-26 15:42:00,82.3,72.4,29.79,SSW,206,16.0,16.0,72,0.00,,,0.00,Wunderground v.1.15,2013-02-26 20:42:00,
2013-02-26 15:43:00,82.3,72.0,29.79,SW,218,0.0,16.0,71,0.00,,,0.00,Wunderground v.1.15,2013-02-26 20:43:00,
2013-02-26 15:47:00,82.4,72.0,29.80,South,186,7.0,16.0,71,0.00,,,0.00,Wunderground v.1.15,2013-02-26 20:47:00,
2013-02-26 15:48:00,82.4,72.0,29.80,SSW,213,0.0,16.0,71,0.00,,,0.00,Wunderground v.1.15,2013-02-26 20:48:00,
2013-02-26 15:49:00,82.4,72.0,29.80,SSW,192,0.0,16.0,71,0.00,,,0.00,Wunderground v.1.15,2013-02-26 20:49:00,
2013-02-26 15:53:00,82.4,72.5,29.80,SE,134,0.0,8.0,72,0.00,,,0.00,Wunderground v.1.15,2013-02-26 20:53:00,
2013-02-26 15:54:00,82.4,72.0,29.80,SSW,198,0.0,8.0,71,0.00,,,0.00,Wunderground v.1.15,2013-02-26 20:54:00,
2013-02-26 15:58:00,82.2,71.9,29.80,SSE,167,0.0,8.0,71,0.00,,,0.00,Wunderground v.1.15,2013-02-26 20:58:00,
2013-02-26 15:59:00,82.2,71.9,29.80,SW,223,0.0,8.0,71,0.00,,,0.00,Wunderground v.1.15,2013-02-26 20:59:00,
2013-02-26 16:03:00,82.2,72.3,29.80,SW,226,1.0,12.0,72,0.00,,,0.00,Wunderground v.1.15,2013-02-26 21:03:00,
2013-02-26 16:04:00,82.2,71.9,29.80,SSW,205,18.0,18.0,71,0.00,,,0.00,Wunderground v.1.15,2013-02-26 21:04:00,
2013-02-26 16:08:00,82.2,71.9,29.80,South,185,1.0,18.0,71,0.00,,,0.00,Wunderground v.1.15,2013-02-26 21:08:00,
2013-02-26 16:09:00,82.2,71.9,29.80,WSW,240,0.0,18.0,71,0.00,,,0.00,Wunderground v.1.15,2013-02-26 21:09:00,
2013-02-26 16:10:00,82.2,71.9,29.80,WSW,240,1.0,4.0,71,0.00,,,0.00,Wunderground v.1.15,2013-02-26 21:10:00,
2013-02-26 16:13:00,82.2,71.9,29.79,SSW,198,0.0,18.0,71,0.00,,,0.00,Wunderground v.1.15,2013-02-26 21:13:00,
2013-02-26 16:15:00,82.2,72.3,29.80,WSW,250,0.0,18.0,72,0.00,,,0.00,Wunderground v.1.15,2013-02-26 21:15:00,
2013-02-26 16:16:00,82.3,72.8,29.80,WSW,256,5.0,18.0,73,0.00,,,0.00,Wunderground v.1.15,2013-02-26 21:16:00,
2013-02-26 16:19:00,82.4,72.9,29.80,SSW,211,3.0,18.0,73,0.00,,,0.00,Wunderground v.1.15,2013-02-26 21:19:00,
2013-02-26 16:20:00,82.4,72.5,29.80,WSW,243,0.0,6.0,72,0.00,,,0.00,Wunderground v.1.15,2013-02-26 21:20:00,
2013-02-26 16:21:00,82.4,72.9,29.80,South,189,5.0,8.0,73,0.00,,,0.00,Wunderground v.1.15,2013-02-26 21:21:00,
2013-02-26 16:24:00,82.3,72.8,29.80,South,190,4.0,8.0,73,0.00,,,0.00,Wunderground v.1.15,2013-02-26 21:24:00,
2013-02-26 16:25:00,82.2,72.3,29.80,WNW,287,5.0,8.0,72,0.00,,,0.00,Wunderground v.1.15,2013-02-26 21:25:00,
2013-02-26 16:26:00,82.2,72.7,29.80,SW,218,4.0,8.0,73,0.00,,,0.00,Wunderground v.1.15,2013-02-26 21:26:00,
2013-02-26 16:27:00,82.2,72.7,29.80,SW,218,0.0,8.0,73,0.00,,,0.00,Wunderground v.1.15,2013-02-26 21:27:00,
2013-02-26 16:30:00,82.1,72.6,29.80,SSW,196,2.0,8.0,73,0.00,,,0.00,Wunderground v.1.15,2013-02-26 21:30:00,
2013-02-26 16:32:00,82.1,72.6,29.80,SW,227,0.0,8.0,73,0.00,,,0.00,Wunderground v.1.15,2013-02-26 21:32:00,
2013-02-26 16:33:00,82.0,72.5,29.80,SW,224,1.0,8.0,73,0.00,,,0.00,Wunderground v.1.15,2013-02-26 21:33:00,
2013-02-26 16:35:00,82.0,72.5,29.80,WSW,252,0.0,8.0,73,0.00,,,0.00,Wunderground v.1.15,2013-02-26 21:35:00,
2013-02-26 16:37:00,81.9,72.4,29.80,SW,225,0.0,8.0,73,0.00,,,0.00,Wunderground v.1.15,2013-02-26 21:37:00,
2013-02-26 16:39:00,81.9,72.8,29.80,SW,215,4.0,8.0,74,0.00,,,0.00,Wunderground v.1.15,2013-02-26 21:39:00,
2013-02-26 16:41:00,81.8,72.7,29.80,SSW,203,0.0,2.0,74,0.00,,,0.00,Wunderground v.1.15,2013-02-26 21:41:00,
2013-02-26 16:42:00,81.8,72.7,29.80,SSW,198,0.0,6.0,74,0.00,,,0.00,Wunderground v.1.15,2013-02-26 21:42:00,
2013-02-26 16:45:00,81.7,72.6,29.80,SSW,209,0.0,6.0,74,0.00,,,0.00,Wunderground v.1.15,2013-02-26 21:45:00,
2013-02-26 16:46:00,81.7,72.6,29.80,ESE,110,0.0,6.0,74,0.00,,,0.00,Wunderground v.1.15,2013-02-26 21:46:00,
2013-02-26 16:47:00,81.7,72.6,29.80,SW,229,4.0,6.0,74,0.00,,,0.00,Wunderground v.1.15,2013-02-26 21:47:00,
2013-02-26 16:48:00,81.6,72.5,29.80,SW,215,2.0,8.0,74,0.00,,,0.00,Wunderground v.1.15,2013-02-26 21:48:00,
2013-02-26 16:50:00,81.6,72.9,29.80,SSW,198,9.0,9.0,75,0.00,,,0.00,Wunderground v.1.15,2013-02-26 21:50:00,
2013-02-26 16:51:00,81.6,72.5,29.80,South,180,0.0,9.0,74,0.00,,,0.00,Wunderground v.1.15,2013-02-26 21:51:00,
2013-02-26 16:52:00,81.6,72.9,29.80,South,191,5.0,9.0,75,0.00,,,0.00,Wunderground v.1.15,2013-02-26 21:52:00,
2013-02-26 16:53:00,81.6,72.9,29.80,South,179,1.0,9.0,75,0.00,,,0.00,Wunderground v.1.15,2013-02-26 21:53:00,
2013-02-26 16:56:00,81.4,72.7,29.80,SSW,192,4.0,9.0,75,0.00,,,0.00,Wunderground v.1.15,2013-02-26 21:56:00,
2013-02-26 16:57:00,81.4,72.7,29.80,South,190,0.0,9.0,75,0.00,,,0.00,Wunderground v.1.15,2013-02-26 21:57:00,
2013-02-26 16:58:00,81.4,72.7,29.80,WSW,240,7.0,9.0,75,0.00,,,0.00,Wunderground v.1.15,2013-02-26 21:58:00,
2013-02-26 17:01:00,81.3,72.6,29.80,South,185,0.0,5.0,75,0.00,,,0.00,Wunderground v.1.15,2013-02-26 22:01:00,
2013-02-26 17:02:00,81.3,72.6,29.80,South,185,0.0,5.0,75,0.00,,,0.00,Wunderground v.1.15,2013-02-26 22:02:00,
2013-02-26 17:04:00,81.3,72.6,29.80,SW,214,0.0,5.0,75,0.00,,,0.00,Wunderground v.1.15,2013-02-26 22:04:00,
2013-02-26 17:07:00,81.2,72.5,29.80,SSE,165,0.0,5.0,75,0.00,,,0.00,Wunderground v.1.15,2013-02-26 22:07:00,
2013-02-26 17:08:00,81.2,72.5,29.80,South,190,1.0,5.0,75,0.00,,,0.00,Wunderground v.1.15,2013-02-26 22:08:00,
2013-02-26 17:10:00,81.1,72.4,29.80,SSW,201,0.0,1.0,75,0.00,,,0.00,Wunderground v.1.15,2013-02-26 22:10:00,
2013-02-26 17:12:00,81.1,72.8,29.80,SSW,204,0.0,1.0,76,0.00,,,0.00,Wunderground v.1.15,2013-02-26 22:12:00,
2013-02-26 17:13:00,81.1,72.8,29.80,SSE,147,7.0,7.0,76,0.00,,,0.00,Wunderground v.1.15,2013-02-26 22:13:00,
2013-02-26 17:15:00,81.0,72.7,29.80,WNW,288,5.0,8.0,76,0.00,,,0.00,Wunderground v.1.15,2013-02-26 22:15:00,
2013-02-26 17:17:00,81.0,72.7,29.80,West,279,0.0,8.0,76,0.00,,,0.00,Wunderground v.1.15,2013-02-26 22:17:00,
2013-02-26 17:18:00,81.0,72.7,29.80,West,279,0.0,8.0,76,0.00,,,0.00,Wunderground v.1.15,2013-02-26 22:18:00,
2013-02-26 17:19:00,81.0,72.7,29.80,West,279,0.0,8.0,76,0.00,,,0.00,Wunderground v.1.15,2013-02-26 22:19:00,
2013-02-26 17:21:00,81.0,72.7,29.80,SSW,194,0.0,8.0,76,0.00,,,0.00,Wunderground v.1.15,2013-02-26 22:21:00,
2013-02-26 17:22:00,80.9,72.6,29.80,South,171,4.0,8.0,76,0.00,,,0.00,Wunderground v.1.15,2013-02-26 22:22:00,
2013-02-26 17:23:00,80.9,72.6,29.80,SW,215,0.0,8.0,76,0.00,,,0.00,Wunderground v.1.15,2013-02-26 22:23:00,
2013-02-26 17:24:00,80.9,72.6,29.80,SW,215,0.0,8.0,76,0.00,,,0.00,Wunderground v.1.15,2013-02-26 22:24:00,
2013-02-26 17:26:00,80.9,73.0,29.80,SSW,194,0.0,8.0,77,0.00,,,0.00,Wunderground v.1.15,2013-02-26 22:26:00,
2013-02-26 17:28:00,80.8,72.9,29.80,West,279,1.0,8.0,77,0.00,,,0.00,Wunderground v.1.15,2013-02-26 22:28:00,
2013-02-26 17:29:00,80.8,72.9,29.80,West,274,0.0,8.0,77,0.00,,,0.00,Wunderground v.1.15,2013-02-26 22:29:00,
2013-02-26 17:31:00,80.7,72.8,29.80,SSW,200,0.0,2.0,77,0.00,,,0.00,Wunderground v.1.15,2013-02-26 22:31:00,
2013-02-26 17:34:00,80.7,73.2,29.80,SSW,201,0.0,2.0,78,0.00,,,0.00,Wunderground v.1.15,2013-02-26 22:34:00,
2013-02-26 17:36:00,80.6,72.7,29.80,South,184,0.0,2.0,77,0.00,,,0.00,Wunderground v.1.15,2013-02-26 22:36:00,
2013-02-26 17:37:00,80.5,72.6,29.80,South,184,0.0,2.0,77,0.00,,,0.00,Wunderground v.1.15,2013-02-26 22:37:00,
2013-02-26 17:39:00,80.5,73.0,29.80,SSW,192,0.0,3.0,78,0.00,,,0.00,Wunderground v.1.15,2013-02-26 22:39:00,
2013-02-26 17:42:00,80.4,72.9,29.81,South,174,0.0,5.0,78,0.00,,,0.00,Wunderground v.1.15,2013-02-26 22:42:00,
2013-02-26 17:43:00,80.4,72.9,29.81,SSW,211,1.0,5.0,78,0.00,,,0.00,Wunderground v.1.15,2013-02-26 22:43:00,
2013-02-26 17:44:00,80.3,72.8,29.81,SSW,201,1.0,8.0,78,0.00,,,0.00,Wunderground v.1.15,2013-02-26 22:44:00,
2013-02-26 17:47:00,80.3,72.8,29.81,SW,219,0.0,8.0,78,0.00,,,0.00,Wunderground v.1.15,2013-02-26 22:47:00,
2013-02-26 17:48:00,80.3,72.8,29.81,SW,219,1.0,8.0,78,0.00,,,0.00,Wunderground v.1.15,2013-02-26 22:48:00,
2013-02-26 17:49:00,80.2,72.7,29.81,SW,215,0.0,1.0,78,0.00,,,0.00,Wunderground v.1.15,2013-02-26 22:49:00,
2013-02-26 17:50:00,80.2,72.7,29.81,SW,233,1.0,1.0,78,0.00,,,0.00,Wunderground v.1.15,2013-02-26 22:50:00,
2013-02-26 17:52:00,80.2,72.7,29.81,SW,232,2.0,5.0,78,0.00,,,0.00,Wunderground v.1.15,2013-02-26 22:52:00,
2013-02-26 17:54:00,80.1,72.6,29.81,SW,236,2.0,6.0,78,0.00,,,0.00,Wunderground v.1.15,2013-02-26 22:54:00,
2013-02-26 17:55:00,80.1,72.6,29.81,WSW,237,0.0,6.0,78,0.00,,,0.00,Wunderground v.1.15,2013-02-26 22:55:00,
2013-02-26 17:57:00,80.1,72.6,29.81,South,186,2.0,6.0,78,0.00,,,0.00,Wunderground v.1.15,2013-02-26 22:57:00,
2013-02-26 18:00:00,80.1,73.0,29.81,SW,215,5.0,5.0,79,0.00,,,0.00,Wunderground v.1.15,2013-02-26 23:00:00,
2013-02-26 18:01:00,80.1,73.0,29.81,SSW,212,2.0,5.0,79,0.00,,,0.00,Wunderground v.1.15,2013-02-26 23:01:00,
2013-02-26 18:02:00,80.0,72.5,29.81,SW,236,4.0,5.0,78,0.00,,,0.00,Wunderground v.1.15,2013-02-26 23:02:00,
2013-02-26 18:06:00,80.0,72.5,29.82,WSW,244,1.0,8.0,78,0.00,,,0.00,Wunderground v.1.15,2013-02-26 23:06:00,
2013-02-26 18:07:00,80.0,72.5,29.82,WSW,245,0.0,8.0,78,0.00,,,0.00,Wunderground v.1.15,2013-02-26 23:07:00,
2013-02-26 18:08:00,80.0,72.5,29.82,SSW,193,0.0,8.0,78,0.00,,,0.00,Wunderground v.1.15,2013-02-26 23:08:00,
2013-02-26 18:11:00,80.0,72.5,29.82,West,277,0.0,5.0,78,0.00,,,0.00,Wunderground v.1.15,2013-02-26 23:11:00,
2013-02-26 18:12:00,80.0,72.5,29.82,West,271,2.0,5.0,78,0.00,,,0.00,Wunderground v.1.15,2013-02-26 23:12:00,
2013-02-26 18:13:00,80.0,72.5,29.81,SW,235,0.0,5.0,78,0.00,,,0.00,Wunderground v.1.15,2013-02-26 23:13:00,
2013-02-26 18:17:00,79.9,72.4,29.82,South,186,0.0,6.0,78,0.00,,,0.00,Wunderground v.1.15,2013-02-26 23:17:00,
2013-02-26 18:18:00,79.9,72.4,29.81,West,266,4.0,6.0,78,0.00,,,0.00,Wunderground v.1.15,2013-02-26 23:18:00,
2013-02-26 18:22:00,79.7,72.2,29.81,WSW,250,0.0,5.0,78,0.00,,,0.00,Wunderground v.1.15,2013-02-26 23:22:00,
2013-02-26 18:23:00,79.7,72.2,29.81,SW,222,0.0,5.0,78,0.00,,,0.00,Wunderground v.1.15,2013-02-26 23:23:00,
2013-02-26 18:24:00,79.7,72.2,29.81,SW,222,5.0,5.0,78,0.00,,,0.00,Wunderground v.1.15,2013-02-26 23:24:00,
2013-02-26 18:28:00,79.6,72.1,29.82,SW,220,2.0,5.0,78,0.00,,,0.00,Wunderground v.1.15,2013-02-26 23:28:00,
2013-02-26 18:29:00,79.5,72.0,29.82,SW,231,0.0,5.0,78,0.00,,,0.00,Wunderground v.1.15,2013-02-26 23:29:00,
2013-02-26 18:34:00,79.4,72.3,29.82,West,261,0.0,2.0,79,0.00,,,0.00,Wunderground v.1.15,2013-02-26 23:34:00,
2013-02-26 18:39:00,79.2,72.1,29.82,SW,227,0.0,5.0,79,0.00,,,0.00,Wunderground v.1.15,2013-02-26 23:39:00,
2013-02-26 18:40:00,79.2,72.1,29.83,SSW,211,0.0,0.0,79,0.00,,,0.00,Wunderground v.1.15,2013-02-26 23:40:00,
2013-02-26 18:44:00,79.1,72.0,29.83,SW,232,0.0,0.0,79,0.00,,,0.00,Wunderground v.1.15,2013-02-26 23:44:00,
2013-02-26 18:45:00,79.1,72.0,29.82,SW,232,0.0,0.0,79,0.00,,,0.00,Wunderground v.1.15,2013-02-26 23:45:00,
2013-02-26 18:49:00,79.0,72.3,29.82,SW,223,0.0,0.0,80,0.00,,,0.00,Wunderground v.1.15,2013-02-26 23:49:00,
2013-02-26 18:50:00,79.0,72.3,29.82,SW,223,0.0,0.0,80,0.00,,,0.00,Wunderground v.1.15,2013-02-26 23:50:00,
2013-02-26 18:51:00,79.0,72.3,29.82,SW,224,0.0,0.0,80,0.00,,,0.00,Wunderground v.1.15,2013-02-26 23:51:00,
2013-02-26 18:55:00,78.8,72.1,29.82,SW,234,0.0,0.0,80,0.00,,,0.00,Wunderground v.1.15,2013-02-26 23:55:00,
2013-02-26 18:57:00,78.7,72.4,29.82,SW,234,0.0,0.0,81,0.00,,,0.00,Wunderground v.1.15,2013-02-26 23:57:00,
2013-02-26 19:00:00,78.6,72.3,29.82,SW,234,0.0,0.0,81,0.00,,,0.00,Wunderground v.1.15,2013-02-27 00:00:00,
2013-02-26 19:03:00,78.5,72.2,29.82,SW,234,0.0,0.0,81,0.00,,,0.00,Wunderground v.1.15,2013-02-27 00:03:00,
2013-02-26 19:05:00,78.3,72.0,29.82,SW,235,0.0,0.0,81,0.00,,,0.00,Wunderground v.1.15,2013-02-27 00:05:00,
2013-02-26 19:06:00,78.3,72.0,29.82,SW,235,0.0,0.0,81,0.00,,,0.00,Wunderground v.1.15,2013-02-27 00:06:00,
2013-02-26 19:08:00,78.2,72.3,29.83,SW,228,0.0,0.0,82,0.00,,,0.00,Wunderground v.1.15,2013-02-27 00:08:00,
2013-02-26 19:10:00,78.1,72.2,29.83,SW,228,0.0,0.0,82,0.00,,,0.00,Wunderground v.1.15,2013-02-27 00:10:00,
2013-02-26 19:11:00,78.1,72.2,29.83,SW,228,0.0,0.0,82,0.00,,,0.00,Wunderground v.1.15,2013-02-27 00:11:00,
2013-02-26 19:13:00,78.0,72.1,29.83,SW,227,0.0,0.0,82,0.00,,,0.00,Wunderground v.1.15,2013-02-27 00:13:00,
2013-02-26 19:15:00,77.9,72.0,29.83,SW,221,0.0,0.0,82,0.00,,,0.00,Wunderground v.1.15,2013-02-27 00:15:00,
2013-02-26 19:16:00,77.9,72.0,29.83,SW,221,0.0,0.0,82,0.00,,,0.00,Wunderground v.1.15,2013-02-27 00:16:00,
2013-02-26 19:17:00,77.9,72.0,29.83,SW,221,0.0,0.0,82,0.00,,,0.00,Wunderground v.1.15,2013-02-27 00:17:00,
2013-02-26 19:19:00,77.9,72.3,29.83,SW,221,0.0,0.0,83,0.00,,,0.00,Wunderground v.1.15,2013-02-27 00:19:00,
2013-02-26 19:20:00,77.9,72.3,29.83,SW,222,0.0,0.0,83,0.00,,,0.00,Wunderground v.1.15,2013-02-27 00:20:00,
2013-02-26 19:21:00,77.8,72.2,29.83,SW,222,0.0,0.0,83,0.00,,,0.00,Wunderground v.1.15,2013-02-27 00:21:00,
2013-02-26 19:22:00,77.8,72.2,29.83,SW,222,0.0,0.0,83,0.00,,,0.00,Wunderground v.1.15,2013-02-27 00:22:00,
2013-02-26 19:24:00,77.8,72.2,29.83,SW,222,0.0,0.0,83,0.00,,,0.00,Wunderground v.1.15,2013-02-27 00:24:00,
2013-02-26 19:26:00,77.6,72.0,29.83,SW,222,0.0,0.0,83,0.00,,,0.00,Wunderground v.1.15,2013-02-27 00:26:00,
2013-02-26 19:27:00,77.6,72.0,29.83,SW,222,0.0,0.0,83,0.00,,,0.00,Wunderground v.1.15,2013-02-27 00:27:00,
2013-02-26 19:28:00,77.6,72.0,29.83,SW,222,0.0,0.0,83,0.00,,,0.00,Wunderground v.1.15,2013-02-27 00:28:00,
2013-02-26 19:30:00,77.5,71.9,29.83,SW,222,0.0,0.0,83,0.00,,,0.00,Wunderground v.1.15,2013-02-27 00:30:00,
2013-02-26 19:31:00,77.4,72.2,29.84,SW,222,0.0,0.0,84,0.00,,,0.00,Wunderground v.1.15,2013-02-27 00:31:00,
2013-02-26 19:32:00,77.4,71.8,29.84,SW,222,0.0,0.0,83,0.00,,,0.00,Wunderground v.1.15,2013-02-27 00:32:00,
2013-02-26 19:33:00,77.3,72.1,29.84,SW,222,0.0,0.0,84,0.00,,,0.00,Wunderground v.1.15,2013-02-27 00:33:00,
2013-02-26 19:36:00,77.2,72.0,29.84,SW,221,0.0,0.0,84,0.00,,,0.00,Wunderground v.1.15,2013-02-27 00:36:00,
2013-02-26 19:37:00,77.2,72.0,29.84,SW,221,0.0,0.0,84,0.00,,,0.00,Wunderground v.1.15,2013-02-27 00:37:00,
2013-02-26 19:38:00,77.1,71.9,29.84,SW,222,0.0,0.0,84,0.00,,,0.00,Wunderground v.1.15,2013-02-27 00:38:00,
2013-02-26 19:42:00,77.0,72.1,29.84,SW,230,0.0,0.0,85,0.00,,,0.00,Wunderground v.1.15,2013-02-27 00:42:00,
2013-02-26 19:43:00,77.0,71.8,29.84,SW,230,0.0,0.0,84,0.00,,,0.00,Wunderground v.1.15,2013-02-27 00:43:00,
2013-02-26 19:46:00,77.0,72.1,29.84,SW,230,0.0,0.0,85,0.00,,,0.00,Wunderground v.1.15,2013-02-27 00:46:00,
2013-02-26 19:47:00,76.9,72.0,29.84,SW,230,0.0,0.0,85,0.00,,,0.00,Wunderground v.1.15,2013-02-27 00:47:00,
2013-02-26 19:48:00,76.9,72.0,29.84,SW,230,0.0,0.0,85,0.00,,,0.00,Wunderground v.1.15,2013-02-27 00:48:00,
2013-02-26 19:51:00,77.0,72.1,29.84,SW,230,0.0,0.0,85,0.00,,,0.00,Wunderground v.1.15,2013-02-27 00:51:00,
2013-02-26 19:52:00,77.0,72.1,29.84,SW,230,0.0,0.0,85,0.00,,,0.00,Wunderground v.1.15,2013-02-27 00:52:00,
2013-02-26 19:54:00,77.1,72.2,29.84,SW,230,0.0,0.0,85,0.00,,,0.00,Wunderground v.1.15,2013-02-27 00:54:00,
2013-02-26 19:57:00,77.0,72.1,29.84,SW,230,0.0,0.0,85,0.00,,,0.00,Wunderground v.1.15,2013-02-27 00:57:00,
2013-02-26 19:59:00,77.0,72.1,29.84,SW,230,0.0,0.0,85,0.00,,,0.00,Wunderground v.1.15,2013-02-27 00:59:00,
2013-02-26 20:02:00,77.1,72.2,29.84,SW,229,0.0,0.0,85,0.00,,,0.00,Wunderground v.1.15,2013-02-27 01:02:00,
2013-02-26 20:03:00,77.1,72.2,29.84,SW,229,0.0,0.0,85,0.00,,,0.00,Wunderground v.1.15,2013-02-27 01:03:00,
2013-02-26 20:04:00,77.0,72.1,29.84,SW,229,0.0,0.0,85,0.00,,,0.00,Wunderground v.1.15,2013-02-27 01:04:00,
2013-02-26 20:07:00,77.0,72.1,29.84,SW,229,0.0,0.0,85,0.00,,,0.00,Wunderground v.1.15,2013-02-27 01:07:00,
2013-02-26 20:08:00,77.0,72.1,29.84,SW,229,0.0,0.0,85,0.00,,,0.00,Wunderground v.1.15,2013-02-27 01:08:00,
2013-02-26 20:09:00,77.0,72.1,29.84,SW,229,0.0,0.0,85,0.00,,,0.00,Wunderground v.1.15,2013-02-27 01:09:00,
2013-02-26 20:13:00,76.9,72.0,29.84,SW,229,0.0,0.0,85,0.00,,,0.00,Wunderground v.1.15,2013-02-27 01:13:00,
2013-02-26 20:14:00,76.9,72.0,29.85,SW,229,0.0,0.0,85,0.00,,,0.00,Wunderground v.1.15,2013-02-27 01:14:00,
2013-02-26 20:18:00,76.8,72.3,29.85,SW,227,0.0,0.0,86,0.00,,,0.00,Wunderground v.1.15,2013-02-27 01:18:00,
2013-02-26 20:19:00,76.8,72.3,29.85,SW,227,0.0,0.0,86,0.00,,,0.00,Wunderground v.1.15,2013-02-27 01:19:00,
2013-02-26 20:23:00,76.7,72.2,29.85,SW,227,0.0,0.0,86,0.00,,,0.00,Wunderground v.1.15,2013-02-27 01:23:00,
2013-02-26 20:24:00,76.7,72.2,29.85,SW,227,0.0,0.0,86,0.00,,,0.00,Wunderground v.1.15,2013-02-27 01:24:00,
2013-02-26 20:28:00,76.5,72.0,29.85,SW,227,0.0,0.0,86,0.00,,,0.00,Wunderground v.1.15,2013-02-27 01:28:00,
2013-02-26 20:29:00,76.5,72.3,29.85,SW,227,0.0,0.0,87,0.00,,,0.00,Wunderground v.1.15,2013-02-27 01:29:00,
2013-02-26 20:30:00,76.5,72.3,29.85,SW,227,0.0,0.0,87,0.00,,,0.00,Wunderground v.1.15,2013-02-27 01:30:00,
2013-02-26 20:33:00,76.4,72.2,29.85,SW,227,0.0,0.0,87,0.00,,,0.00,Wunderground v.1.15,2013-02-27 01:33:00,
2013-02-26 20:35:00,76.4,72.2,29.85,SW,227,0.0,0.0,87,0.00,,,0.00,Wunderground v.1.15,2013-02-27 01:35:00,
2013-02-26 20:38:00,76.4,72.2,29.85,SW,227,0.0,0.0,87,0.00,,,0.00,Wunderground v.1.15,2013-02-27 01:38:00,
2013-02-26 20:40:00,76.4,72.2,29.86,SW,227,0.0,0.0,87,0.00,,,0.00,Wunderground v.1.15,2013-02-27 01:40:00,
2013-02-26 20:41:00,76.4,72.2,29.86,SW,227,0.0,0.0,87,0.00,,,0.00,Wunderground v.1.15,2013-02-27 01:41:00,
2013-02-26 20:43:00,76.4,72.2,29.85,SW,227,0.0,0.0,87,0.00,,,0.00,Wunderground v.1.15,2013-02-27 01:43:00,
2013-02-26 20:45:00,76.4,72.2,29.86,SW,227,0.0,0.0,87,0.00,,,0.00,Wunderground v.1.15,2013-02-27 01:45:00,
2013-02-26 20:46:00,76.4,72.2,29.86,SW,227,0.0,0.0,87,0.00,,,0.00,Wunderground v.1.15,2013-02-27 01:46:00,
2013-02-26 20:50:00,76.3,72.1,29.86,SW,227,0.0,0.0,87,0.00,,,0.00,Wunderground v.1.15,2013-02-27 01:50:00,
2013-02-26 20:51:00,76.3,72.1,29.86,SW,227,0.0,0.0,87,0.00,,,0.00,Wunderground v.1.15,2013-02-27 01:51:00,
2013-02-26 20:52:00,76.3,72.1,29.86,SW,227,0.0,0.0,87,0.00,,,0.00,Wunderground v.1.15,2013-02-27 01:52:00,
2013-02-26 20:55:00,76.3,72.5,29.86,SW,227,0.0,0.0,88,0.00,,,0.00,Wunderground v.1.15,2013-02-27 01:55:00,
2013-02-26 20:56:00,76.2,72.4,29.86,SW,227,0.0,0.0,88,0.00,,,0.00,Wunderground v.1.15,2013-02-27 01:56:00,
2013-02-26 20:57:00,76.2,72.4,29.86,SW,227,0.0,0.0,88,0.00,,,0.00,Wunderground v.1.15,2013-02-27 01:57:00,
2013-02-26 21:01:00,76.2,72.4,29.86,SW,221,0.0,0.0,88,0.00,,,0.00,Wunderground v.1.15,2013-02-27 02:01:00,
2013-02-26 21:02:00,76.2,72.4,29.86,SW,221,0.0,0.0,88,0.00,,,0.00,Wunderground v.1.15,2013-02-27 02:02:00,
2013-02-26 21:06:00,76.2,72.0,29.86,SW,221,0.0,0.0,87,0.00,,,0.00,Wunderground v.1.15,2013-02-27 02:06:00,
2013-02-26 21:08:00,76.2,72.0,29.86,SW,221,0.0,0.0,87,0.00,,,0.00,Wunderground v.1.15,2013-02-27 02:08:00,
2013-02-26 21:12:00,76.1,72.3,29.86,SW,219,0.0,0.0,88,0.00,,,0.00,Wunderground v.1.15,2013-02-27 02:12:00,
2013-02-26 21:13:00,76.1,72.3,29.86,SW,219,0.0,0.0,88,0.00,,,0.00,Wunderground v.1.15,2013-02-27 02:13:00,
2013-02-26 21:14:00,76.1,72.3,29.86,SW,219,0.0,0.0,88,0.00,,,0.00,Wunderground v.1.15,2013-02-27 02:14:00,
2013-02-26 21:18:00,76.1,72.3,29.86,SSW,205,0.0,0.0,88,0.00,,,0.00,Wunderground v.1.15,2013-02-27 02:18:00,
2013-02-26 21:21:00,76.1,72.3,29.86,SSW,203,0.0,0.0,88,0.00,,,0.00,Wunderground v.1.15,2013-02-27 02:21:00,
2013-02-26 21:23:00,76.1,72.3,29.86,SSW,202,0.0,0.0,88,0.00,,,0.00,Wunderground v.1.15,2013-02-27 02:23:00,
2013-02-26 21:24:00,76.1,72.3,29.86,SSW,202,0.0,0.0,88,0.00,,,0.00,Wunderground v.1.15,2013-02-27 02:24:00,
2013-02-26 21:25:00,76.1,72.3,29.86,SSW,204,0.0,0.0,88,0.00,,,0.00,Wunderground v.1.15,2013-02-27 02:25:00,
2013-02-26 21:26:00,76.1,72.3,29.86,SSW,204,0.0,0.0,88,0.00,,,0.00,Wunderground v.1.15,2013-02-27 02:26:00,
2013-02-26 21:28:00,76.2,72.4,29.86,SSW,196,0.0,0.0,88,0.00,,,0.00,Wunderground v.1.15,2013-02-27 02:28:00,
2013-02-26 21:29:00,76.2,72.4,29.86,SSW,192,0.0,0.0,88,0.00,,,0.00,Wunderground v.1.15,2013-02-27 02:29:00,
2013-02-26 21:31:00,76.2,72.4,29.86,SSW,192,0.0,0.0,88,0.00,,,0.00,Wunderground v.1.15,2013-02-27 02:31:00,
2013-02-26 21:34:00,76.2,72.4,29.86,South,191,0.0,0.0,88,0.00,,,0.00,Wunderground v.1.15,2013-02-27 02:34:00,
2013-02-26 21:35:00,76.2,72.4,29.86,South,191,0.0,0.0,88,0.00,,,0.00,Wunderground v.1.15,2013-02-27 02:35:00,
2013-02-26 21:36:00,76.2,72.7,29.86,South,191,0.0,0.0,89,0.00,,,0.00,Wunderground v.1.15,2013-02-27 02:36:00,
2013-02-26 21:37:00,76.2,72.7,29.86,South,191,0.0,0.0,89,0.00,,,0.00,Wunderground v.1.15,2013-02-27 02:37:00,
2013-02-26 21:40:00,76.2,72.4,29.86,South,191,0.0,0.0,88,0.00,,,0.00,Wunderground v.1.15,2013-02-27 02:40:00,
2013-02-26 21:41:00,76.2,72.7,29.86,South,191,0.0,0.0,89,0.00,,,0.00,Wunderground v.1.15,2013-02-27 02:41:00,
2013-02-26 21:43:00,76.2,72.7,29.86,South,187,0.0,0.0,89,0.00,,,0.00,Wunderground v.1.15,2013-02-27 02:43:00,
2013-02-26 21:45:00,76.2,72.7,29.86,South,187,0.0,0.0,89,0.00,,,0.00,Wunderground v.1.15,2013-02-27 02:45:00,
2013-02-26 21:46:00,76.2,72.7,29.86,South,187,0.0,0.0,89,0.00,,,0.00,Wunderground v.1.15,2013-02-27 02:46:00,
2013-02-26 21:47:00,76.2,72.7,29.86,South,187,0.0,0.0,89,0.00,,,0.00,Wunderground v.1.15,2013-02-27 02:47:00,
2013-02-26 21:48:00,76.2,72.7,29.86,South,187,0.0,0.0,89,0.00,,,0.00,Wunderground v.1.15,2013-02-27 02:48:00,
2013-02-26 21:51:00,76.2,72.7,29.86,South,187,0.0,0.0,89,0.00,,,0.00,Wunderground v.1.15,2013-02-27 02:51:00,
2013-02-26 21:52:00,76.2,72.7,29.86,South,184,0.0,0.0,89,0.00,,,0.00,Wunderground v.1.15,2013-02-27 02:52:00,
2013-02-26 21:53:00,76.2,72.7,29.86,South,186,0.0,0.0,89,0.00,,,0.00,Wunderground v.1.15,2013-02-27 02:53:00,
2013-02-26 21:56:00,76.2,72.7,29.86,South,177,0.0,0.0,89,0.00,,,0.00,Wunderground v.1.15,2013-02-27 02:56:00,
2013-02-26 21:57:00,76.3,73.1,29.86,South,177,0.0,0.0,90,0.00,,,0.00,Wunderground v.1.15,2013-02-27 02:57:00,
2013-02-26 21:59:00,76.3,73.1,29.86,South,180,0.0,1.0,90,0.00,,,0.00,Wunderground v.1.15,2013-02-27 02:59:00,
2013-02-26 22:01:00,76.4,73.2,29.86,South,174,0.0,0.0,90,0.00,,,0.00,Wunderground v.1.15,2013-02-27 03:01:00,
2013-02-26 22:02:00,76.4,73.2,29.86,South,178,0.0,0.0,90,0.00,,,0.00,Wunderground v.1.15,2013-02-27 03:02:00,
2013-02-26 22:04:00,76.4,73.2,29.86,South,178,0.0,0.0,90,0.00,,,0.00,Wunderground v.1.15,2013-02-27 03:04:00,
2013-02-26 22:07:00,76.4,73.2,29.86,South,186,0.0,0.0,90,0.00,,,0.00,Wunderground v.1.15,2013-02-27 03:07:00,
2013-02-26 22:08:00,76.4,73.2,29.86,South,178,0.0,0.0,90,0.00,,,0.00,Wunderground v.1.15,2013-02-27 03:08:00,
2013-02-26 22:09:00,76.4,73.2,29.86,South,178,0.0,0.0,90,0.00,,,0.00,Wunderground v.1.15,2013-02-27 03:09:00,
2013-02-26 22:12:00,76.5,73.3,29.86,South,171,0.0,0.0,90,0.00,,,0.00,Wunderground v.1.15,2013-02-27 03:12:00,
2013-02-26 22:13:00,76.5,73.3,29.87,South,171,0.0,0.0,90,0.00,,,0.00,Wunderground v.1.15,2013-02-27 03:13:00,
2013-02-26 22:14:00,76.5,73.3,29.86,South,169,0.0,0.0,90,0.00,,,0.00,Wunderground v.1.15,2013-02-27 03:14:00,
2013-02-26 22:17:00,76.4,73.2,29.87,South,169,0.0,0.0,90,0.00,,,0.00,Wunderground v.1.15,2013-02-27 03:17:00,
2013-02-26 22:19:00,76.4,73.2,29.87,South,170,0.0,0.0,90,0.00,,,0.00,Wunderground v.1.15,2013-02-27 03:19:00,
2013-02-26 22:20:00,76.4,73.2,29.87,South,170,0.0,0.0,90,0.00,,,0.00,Wunderground v.1.15,2013-02-27 03:20:00,
2013-02-26 22:22:00,76.4,73.2,29.87,South,170,0.0,0.0,90,0.00,,,0.00,Wunderground v.1.15,2013-02-27 03:22:00,
2013-02-26 22:24:00,76.4,73.2,29.87,South,170,0.0,0.0,90,0.00,,,0.00,Wunderground v.1.15,2013-02-27 03:24:00,
2013-02-26 22:26:00,76.4,73.2,29.87,South,170,0.0,0.0,90,0.00,,,0.00,Wunderground v.1.15,2013-02-27 03:26:00,
2013-02-26 22:27:00,76.4,73.2,29.87,South,173,0.0,0.0,90,0.00,,,0.00,Wunderground v.1.15,2013-02-27 03:27:00,
2013-02-26 22:28:00,76.4,73.2,29.87,South,173,0.0,0.0,90,0.00,,,0.00,Wunderground v.1.15,2013-02-27 03:28:00,
2013-02-26 22:30:00,76.4,73.2,29.87,South,173,0.0,0.0,90,0.00,,,0.00,Wunderground v.1.15,2013-02-27 03:30:00,
2013-02-26 22:32:00,76.3,73.5,29.87,South,173,0.0,0.0,91,0.00,,,0.00,Wunderground v.1.15,2013-02-27 03:32:00,
2013-02-26 22:33:00,76.4,73.6,29.87,South,173,0.0,0.0,91,0.00,,,0.00,Wunderground v.1.15,2013-02-27 03:33:00,
2013-02-26 22:35:00,76.3,73.5,29.87,South,173,0.0,0.0,91,0.00,,,0.00,Wunderground v.1.15,2013-02-27 03:35:00,
2013-02-26 22:37:00,76.3,73.5,29.87,South,173,0.0,0.0,91,0.00,,,0.00,Wunderground v.1.15,2013-02-27 03:37:00,
2013-02-26 22:38:00,76.3,73.5,29.87,South,173,0.0,0.0,91,0.00,,,0.00,Wunderground v.1.15,2013-02-27 03:38:00,
2013-02-26 22:40:00,76.3,73.5,29.87,South,173,0.0,0.0,91,0.00,,,0.00,Wunderground v.1.15,2013-02-27 03:40:00,
2013-02-26 22:44:00,76.2,73.4,29.87,South,175,0.0,0.0,91,0.00,,,0.00,Wunderground v.1.15,2013-02-27 03:44:00,
2013-02-26 22:45:00,76.2,73.4,29.87,South,175,0.0,1.0,91,0.00,,,0.00,Wunderground v.1.15,2013-02-27 03:45:00,
2013-02-26 22:46:00,76.2,73.4,29.87,South,175,0.0,1.0,91,0.00,,,0.00,Wunderground v.1.15,2013-02-27 03:46:00,
2013-02-26 22:49:00,76.2,73.4,29.87,South,175,0.0,1.0,91,0.00,,,0.00,Wunderground v.1.15,2013-02-27 03:49:00,
2013-02-26 22:50:00,76.3,73.5,29.87,South,175,0.0,0.0,91,0.00,,,0.00,Wunderground v.1.15,2013-02-27 03:50:00,
2013-02-26 22:51:00,76.2,73.4,29.87,South,175,0.0,0.0,91,0.00,,,0.00,Wunderground v.1.15,2013-02-27 03:51:00,
2013-02-26 22:52:00,76.2,73.4,29.87,South,174,0.0,0.0,91,0.00,,,0.00,Wunderground v.1.15,2013-02-27 03:52:00,
2013-02-26 22:54:00,76.2,73.4,29.87,South,174,0.0,0.0,91,0.00,,,0.00,Wunderground v.1.15,2013-02-27 03:54:00,
2013-02-26 22:55:00,76.2,73.4,29.87,South,174,0.0,0.0,91,0.00,,,0.00,Wunderground v.1.15,2013-02-27 03:55:00,
2013-02-26 22:56:00,76.2,73.4,29.87,South,174,0.0,0.0,91,0.00,,,0.00,Wunderground v.1.15,2013-02-27 03:56:00,
2013-02-26 22:58:00,76.2,73.4,29.87,South,174,0.0,0.0,91,0.00,,,0.00,Wunderground v.1.15,2013-02-27 03:58:00,
2013-02-26 23:00:00,76.2,73.4,29.87,South,174,0.0,0.0,91,0.00,,,0.00,Wunderground v.1.15,2013-02-27 04:00:00,
2013-02-26 23:01:00,76.1,73.3,29.87,South,174,0.0,0.0,91,0.00,,,0.00,Wunderground v.1.15,2013-02-27 04:01:00,
2013-02-26 23:04:00,76.1,73.3,29.87,South,174,0.0,0.0,91,0.00,,,0.00,Wunderground v.1.15,2013-02-27 04:04:00,
2013-02-26 23:06:00,76.1,73.3,29.87,South,174,0.0,0.0,91,0.00,,,0.00,Wunderground v.1.15,2013-02-27 04:06:00,
2013-02-26 23:07:00,76.1,73.3,29.87,South,174,0.0,0.0,91,0.00,,,0.00,Wunderground v.1.15,2013-02-27 04:07:00,
2013-02-26 23:10:00,76.1,73.3,29.87,South,174,0.0,0.0,91,0.00,,,0.00,Wunderground v.1.15,2013-02-27 04:10:00,
2013-02-26 23:11:00,76.1,73.3,29.87,South,174,0.0,0.0,91,0.00,,,0.00,Wunderground v.1.15,2013-02-27 04:11:00,
2013-02-26 23:12:00,76.1,73.3,29.87,South,174,0.0,0.0,91,0.00,,,0.00,Wunderground v.1.15,2013-02-27 04:12:00,
2013-02-26 23:15:00,76.0,73.2,29.87,South,174,0.0,0.0,91,0.00,,,0.00,Wunderground v.1.15,2013-02-27 04:15:00,
2013-02-26 23:16:00,76.0,73.2,29.87,South,174,0.0,0.0,91,0.00,,,0.00,Wunderground v.1.15,2013-02-27 04:16:00,
2013-02-26 23:17:00,76.0,73.2,29.87,South,174,0.0,0.0,91,0.00,,,0.00,Wunderground v.1.15,2013-02-27 04:17:00,
2013-02-26 23:18:00,76.0,73.2,29.87,South,174,0.0,0.0,91,0.00,,,0.00,Wunderground v.1.15,2013-02-27 04:18:00,
2013-02-26 23:20:00,76.0,73.5,29.87,South,174,0.0,0.0,92,0.00,,,0.00,Wunderground v.1.15,2013-02-27 04:20:00,
2013-02-26 23:22:00,76.0,73.5,29.87,South,174,0.0,0.0,92,0.00,,,0.00,Wunderground v.1.15,2013-02-27 04:22:00,
2013-02-26 23:23:00,76.0,73.5,29.87,South,174,0.0,0.0,92,0.00,,,0.00,Wunderground v.1.15,2013-02-27 04:23:00,
2013-02-26 23:24:00,75.9,73.4,29.87,South,174,0.0,0.0,92,0.00,,,0.00,Wunderground v.1.15,2013-02-27 04:24:00,
2013-02-26 23:25:00,75.9,73.4,29.87,South,174,0.0,0.0,92,0.00,,,0.00,Wunderground v.1.15,2013-02-27 04:25:00,
2013-02-26 23:28:00,75.8,73.3,29.87,South,174,0.0,0.0,92,0.00,,,0.00,Wunderground v.1.15,2013-02-27 04:28:00,
2013-02-26 23:29:00,75.8,73.3,29.87,South,174,0.0,0.0,92,0.00,,,0.00,Wunderground v.1.15,2013-02-27 04:29:00,
2013-02-26 23:31:00,75.8,73.3,29.87,South,174,0.0,0.0,92,0.00,,,0.00,Wunderground v.1.15,2013-02-27 04:31:00,
2013-02-26 23:33:00,75.8,73.3,29.87,South,177,0.0,0.0,92,0.00,,,0.00,Wunderground v.1.15,2013-02-27 04:33:00,
2013-02-26 23:34:00,75.8,73.3,29.87,South,177,0.0,0.0,92,0.00,,,0.00,Wunderground v.1.15,2013-02-27 04:34:00,
2013-02-26 23:36:00,75.8,73.3,29.87,South,178,0.0,0.0,92,0.00,,,0.00,Wunderground v.1.15,2013-02-27 04:36:00,
2013-02-26 23:39:00,75.8,73.3,29.87,South,178,0.0,0.0,92,0.00,,,0.00,Wunderground v.1.15,2013-02-27 04:39:00,
2013-02-26 23:40:00,75.8,73.3,29.87,South,178,0.0,0.0,92,0.00,,,0.00,Wunderground v.1.15,2013-02-27 04:40:00,
2013-02-26 23:42:00,75.8,73.3,29.87,South,178,0.0,0.0,92,0.00,,,0.00,Wunderground v.1.15,2013-02-27 04:42:00,
2013-02-26 23:44:00,75.8,73.3,29.87,South,178,0.0,0.0,92,0.00,,,0.00,Wunderground v.1.15,2013-02-27 04:44:00,
2013-02-26 23:45:00,75.8,73.3,29.87,South,178,0.0,0.0,92,0.00,,,0.00,Wunderground v.1.15,2013-02-27 04:45:00,
2013-02-26 23:47:00,75.8,73.3,29.87,South,178,0.0,0.0,92,0.00,,,0.00,Wunderground v.1.15,2013-02-27 04:47:00,
2013-02-26 23:50:00,75.8,73.3,29.87,South,178,0.0,0.0,92,0.00,,,0.00,Wunderground v.1.15,2013-02-27 04:50:00,
2013-02-26 23:53:00,75.7,73.2,29.87,South,178,0.0,0.0,92,0.00,,,0.00,Wunderground v.1.15,2013-02-27 04:53:00,
2013-02-26 23:55:00,75.7,73.2,29.87,South,178,0.0,0.0,92,0.00,,,0.00,Wunderground v.1.15,2013-02-27 04:55:00,
2013-02-26 23:56:00,75.7,73.2,29.87,South,178,0.0,0.0,92,0.00,,,0.00,Wunderground v.1.15,2013-02-27 04:56:00,
2013-02-26 23:59:00,75.7,73.2,29.87,South,178,0.0,0.0,92,0.00,,,0.00,Wunderground v.1.15,2013-02-27 04:59:00,